GEFSSGP_prec_meanprecacc_114.txt.gz
Total_Precipitation_Accumulation
0.00 0.00 0.00 0.00 0.00 0.00 0.00 0.00 0.00 0.00 0.00 0.00 0.00 0.00 0.00 0.00 0.00 0.01 0.01 0.01 0.02 0.04 0.07 0.09 0.09 0.09 0.10 0.11 0.10 0.09 0.07 0.07 0.07 0.07 0.07 0.07 0.08 0.08 0.09 0.11 0.12 0.13 0.13 0.15 0.16 0.19 0.17 0.12 0.13
0.00 0.00 0.00 0.00 0.00 0.00 0.00 0.00 0.00 0.00 0.00 0.00 0.00 0.00 0.00 0.00 0.00 0.00 0.00 0.01 0.01 0.02 0.04 0.06 0.09 0.09 0.10 0.10 0.10 0.08 0.06 0.06 0.05 0.05 0.05 0.05 0.05 0.06 0.07 0.08 0.09 0.10 0.12 0.14 0.15 0.16 0.17 0.13 0.13
0.00 0.00 0.00 0.00 0.00 0.00 0.00 0.00 0.00 0.00 0.00 0.00 0.00 0.00 0.00 0.00 0.00 0.01 0.01 0.01 0.01 0.01 0.02 0.05 0.08 0.10 0.11 0.11 0.10 0.08 0.06 0.06 0.06 0.05 0.05 0.04 0.04 0.04 0.05 0.04 0.04 0.05 0.07 0.10 0.12 0.15 0.17 0.16 0.14
0.00 0.00 0.00 0.00 0.00 0.00 0.00 0.00 0.00 0.00 0.00 0.00 0.00 0.00 0.00 0.00 0.00 0.01 0.01 0.01 0.01 0.02 0.02 0.05 0.07 0.10 0.11 0.12 0.11 0.08 0.07 0.06 0.05 0.05 0.04 0.05 0.05 0.05 0.04 0.03 0.03 0.03 0.04 0.07 0.10 0.15 0.20 0.16 0.13
0.00 0.00 0.00 0.00 0.00 0.00 0.00 0.00 0.00 0.00 0.00 0.00 0.00 0.00 0.00 0.00 0.00 0.01 0.01 0.02 0.03 0.03 0.04 0.05 0.05 0.08 0.10 0.11 0.10 0.08 0.07 0.06 0.05 0.04 0.04 0.04 0.04 0.04 0.05 0.05 0.04 0.03 0.03 0.05 0.07 0.11 0.20 0.19 0.18
0.00 0.00 0.00 0.00 0.00 0.00 0.00 0.00 0.00 0.00 0.00 0.00 0.00 0.00 0.00 0.00 0.00 0.00 0.00 0.00 0.00 0.00 0.00 0.01 0.02 0.05 0.07 0.09 0.09 0.07 0.06 0.06 0.06 0.05 0.05 0.04 0.03 0.04 0.07 0.09 0.08 0.06 0.05 0.06 0.06 0.07 0.13 0.17 0.20
0.00 0.00 0.00 0.00 0.00 0.00 0.00 0.00 0.00 0.00 0.00 0.00 0.00 0.00 0.00 0.00 0.00 0.00 0.00 0.00 0.00 0.00 0.00 0.00 0.01 0.03 0.05 0.07 0.07 0.07 0.06 0.06 0.05 0.04 0.04 0.03 0.03 0.04 0.07 0.08 0.07 0.06 0.06 0.07 0.05 0.04 0.06 0.11 0.15
0.00 0.00 0.00 0.00 0.00 0.00 0.00 0.00 0.00 0.00 0.00 0.00 0.00 0.00 0.00 0.00 0.00 0.00 0.00 0.00 0.00 0.00 0.00 0.00 0.00 0.01 0.02 0.04 0.05 0.05 0.05 0.06 0.06 0.06 0.04 0.04 0.04 0.06 0.08 0.06 0.06 0.06 0.07 0.07 0.06 0.05 0.04 0.04 0.05
0.00 0.00 0.00 0.00 0.00 0.00 0.00 0.00 0.00 0.00 0.00 0.00 0.00 0.00 0.00 0.00 0.00 0.00 0.00 0.00 0.00 0.00 0.00 0.00 0.00 0.00 0.01 0.02 0.03 0.04 0.04 0.05 0.06 0.08 0.07 0.05 0.05 0.04 0.04 0.03 0.05 0.05 0.05 0.04 0.05 0.06 0.06 0.04 0.02
0.00 0.00 0.00 0.00 0.00 0.00 0.00 0.00 0.00 0.00 0.00 0.00 0.00 0.00 0.00 0.00 0.00 0.00 0.00 0.00 0.00 0.00 0.00 0.00 0.00 0.00 0.00 0.01 0.02 0.03 0.03 0.03 0.03 0.04 0.04 0.04 0.05 0.05 0.06 0.06 0.07 0.06 0.05 0.06 0.08 0.07 0.06 0.04 0.03
0.00 0.00 0.00 0.00 0.00 0.00 0.00 0.00 0.00 0.00 0.00 0.00 0.00 0.00 0.00 0.00 0.00 0.00 0.00 0.00 0.00 0.00 0.00 0.00 0.00 0.00 0.00 0.01 0.01 0.01 0.02 0.03 0.02 0.02 0.01 0.02 0.03 0.03 0.04 0.05 0.06 0.07 0.08 0.10 0.11 0.11 0.10 0.11 0.12
0.00 0.00 0.00 0.00 0.00 0.00 0.00 0.00 0.00 0.00 0.00 0.00 0.00 0.00 0.00 0.00 0.00 0.00 0.00 0.00 0.00 0.00 0.00 0.00 0.00 0.00 0.00 0.00 0.01 0.01 0.01 0.02 0.02 0.02 0.01 0.01 0.02 0.01 0.01 0.02 0.03 0.04 0.06 0.09 0.14 0.15 0.16 0.13 0.13
0.00 0.00 0.00 0.00 0.00 0.00 0.00 0.00 0.00 0.00 0.00 0.00 0.00 0.00 0.00 0.00 0.00 0.00 0.00 0.00 0.00 0.00 0.00 0.00 0.00 0.01 0.01 0.00 0.01 0.01 0.01 0.01 0.02 0.02 0.02 0.02 0.02 0.02 0.01 0.01 0.01 0.01 0.01 0.02 0.03 0.05 0.08 0.09 0.09
0.00 0.00 0.00 0.00 0.00 0.00 0.00 0.00 0.00 0.00 0.00 0.00 0.00 0.00 0.00 0.00 0.00 0.00 0.00 0.00 0.00 0.00 0.00 0.00 0.00 0.00 0.01 0.00 0.01 0.01 0.01 0.01 0.02 0.02 0.02 0.02 0.02 0.02 0.02 0.01 0.01 0.01 0.01 0.01 0.01 0.01 0.02 0.03 0.03
0.00 0.00 0.00 0.00 0.00 0.00 0.00 0.00 0.00 0.00 0.00 0.00 0.00 0.00 0.00 0.00 0.00 0.00 0.00 0.00 0.00 0.00 0.00 0.00 0.00 0.00 0.01 0.01 0.01 0.01 0.01 0.01 0.02 0.02 0.02 0.02 0.02 0.02 0.02 0.02 0.02 0.01 0.01 0.01 0.00 0.01 0.01 0.01 0.01
0.00 0.00 0.00 0.00 0.00 0.00 0.00 0.00 0.00 0.00 0.00 0.00 0.00 0.00 0.00 0.00 0.00 0.00 0.00 0.00 0.00 0.00 0.00 0.00 0.00 0.00 0.00 0.01 0.01 0.01 0.01 0.02 0.02 0.02 0.02 0.02 0.02 0.02 0.02 0.02 0.02 0.02 0.01 0.01 0.01 0.01 0.01 0.01 0.01
0.00 0.00 0.00 0.00 0.00 0.00 0.00 0.00 0.00 0.00 0.00 0.00 0.00 0.00 0.00 0.00 0.00 0.00 0.00 0.00 0.00 0.00 0.00 0.00 0.00 0.00 0.00 0.00 0.01 0.01 0.02 0.02 0.02 0.01 0.02 0.02 0.02 0.02 0.02 0.03 0.03 0.02 0.02 0.01 0.01 0.01 0.01 0.01 0.01
0.00 0.00 0.00 0.00 0.00 0.00 0.00 0.00 0.00 0.00 0.00 0.00 0.00 0.00 0.00 0.00 0.00 0.00 0.00 0.00 0.00 0.00 0.00 0.00 0.00 0.00 0.00 0.01 0.01 0.01 0.02 0.02 0.02 0.02 0.01 0.01 0.01 0.01 0.02 0.03 0.02 0.02 0.02 0.01 0.01 0.01 0.01 0.01 0.01
0.00 0.00 0.00 0.00 0.00 0.00 0.00 0.00 0.00 0.00 0.00 0.00 0.00 0.00 0.00 0.00 0.00 0.00 0.00 0.00 0.00 0.00 0.00 0.00 0.00 0.00 0.00 0.01 0.01 0.02 0.02 0.02 0.02 0.01 0.01 0.01 0.01 0.01 0.01 0.02 0.02 0.02 0.02 0.02 0.02 0.02 0.02 0.02 0.02
0.00 0.00 0.00 0.00 0.00 0.00 0.00 0.00 0.00 0.00 0.00 0.00 0.00 0.00 0.00 0.00 0.00 0.00 0.00 0.00 0.00 0.00 0.00 0.00 0.00 0.00 0.00 0.00 0.00 0.01 0.01 0.01 0.01 0.01 0.01 0.01 0.01 0.01 0.01 0.02 0.02 0.02 0.02 0.02 0.02 0.02 0.03 0.03 0.02
0.00 0.00 0.00 0.00 0.00 0.00 0.00 0.00 0.00 0.00 0.00 0.00 0.00 0.00 0.00 0.00 0.00 0.00 0.00 0.00 0.00 0.00 0.00 0.00 0.00 0.00 0.00 0.00 0.00 0.00 0.01 0.01 0.01 0.01 0.01 0.01 0.01 0.01 0.01 0.01 0.01 0.01 0.01 0.01 0.01 0.02 0.03 0.04 0.02
0.00 0.00 0.00 0.00 0.00 0.00 0.00 0.00 0.00 0.00 0.00 0.00 0.00 0.00 0.00 0.00 0.00 0.00 0.00 0.00 0.00 0.00 0.00 0.00 0.00 0.00 0.00 0.00 0.00 0.00 0.00 0.01 0.00 0.01 0.01 0.01 0.01 0.00 0.01 0.01 0.01 0.01 0.01 0.01 0.01 0.02 0.03 0.07 0.08
0.00 0.00 0.00 0.00 0.00 0.00 0.00 0.00 0.00 0.00 0.00 0.00 0.00 0.00 0.00 0.00 0.00 0.00 0.00 0.00 0.00 0.00 0.00 0.00 0.00 0.00 0.00 0.00 0.00 0.00 0.00 0.00 0.00 0.00 0.00 0.01 0.01 0.01 0.01 0.01 0.01 0.01 0.01 0.01 0.02 0.02 0.04 0.07 0.12
0.00 0.01 0.01 0.01 0.02 0.02 0.00 0.00 0.00 0.00 0.00 0.00 0.00 0.00 0.00 0.00 0.00 0.00 0.00 0.00 0.00 0.00 0.00 0.00 0.00 0.00 0.00 0.00 0.00 0.00 0.00 0.00 0.00 0.00 0.01 0.01 0.01 0.01 0.01 0.01 0.01 0.01 0.01 0.02 0.02 0.03 0.05 0.06 0.09
0.01 0.03 0.08 0.08 0.06 0.03 0.00 0.00 0.00 0.00 0.00 0.00 0.00 0.00 0.00 0.00 0.00 0.00 0.00 0.00 0.00 0.00 0.00 0.00 0.00 0.00 0.00 0.00 0.00 0.00 0.00 0.00 0.00 0.00 0.01 0.01 0.02 0.02 0.01 0.01 0.01 0.01 0.01 0.02 0.03 0.05 0.05 0.06 0.09
0.01 0.02 0.06 0.05 0.02 0.00 0.00 0.00 0.00 0.00 0.00 0.00 0.00 0.00 0.00 0.00 0.00 0.00 0.00 0.00 0.00 0.00 0.00 0.00 0.00 0.00 0.00 0.00 0.00 0.00 0.01 0.01 0.00 0.00 0.01 0.02 0.03 0.02 0.01 0.01 0.01 0.01 0.02 0.03 0.04 0.06 0.07 0.08 0.10
0.01 0.01 0.01 0.02 0.02 0.01 0.00 0.00 0.00 0.00 0.00 0.00 0.00 0.00 0.00 0.00 0.00 0.00 0.00 0.00 0.00 0.00 0.00 0.00 0.00 0.00 0.00 0.00 0.00 0.00 0.00 0.00 0.00 0.00 0.00 0.01 0.02 0.01 0.01 0.01 0.01 0.02 0.03 0.04 0.06 0.07 0.08 0.09 0.12
0.01 0.01 0.02 0.06 0.07 0.03 0.00 0.00 0.00 0.00 0.00 0.00 0.00 0.00 0.00 0.00 0.00 0.00 0.00 0.00 0.00 0.00 0.00 0.00 0.00 0.00 0.00 0.00 0.00 0.00 0.00 0.00 0.00 0.00 0.00 0.01 0.01 0.01 0.01 0.01 0.02 0.03 0.04 0.05 0.07 0.08 0.09 0.12 0.14
0.01 0.02 0.04 0.06 0.04 0.01 0.00 0.00 0.00 0.00 0.00 0.00 0.00 0.00 0.00 0.00 0.00 0.00 0.00 0.00 0.00 0.00 0.00 0.00 0.00 0.00 0.00 0.00 0.00 0.00 0.00 0.00 0.00 0.00 0.00 0.00 0.00 0.01 0.01 0.01 0.03 0.06 0.07 0.08 0.10 0.10 0.12 0.15 0.16
0.01 0.01 0.02 0.04 0.04 0.01 0.00 0.00 0.00 0.00 0.00 0.00 0.00 0.00 0.00 0.00 0.00 0.00 0.00 0.00 0.00 0.00 0.00 0.00 0.00 0.00 0.00 0.00 0.00 0.00 0.00 0.00 0.00 0.00 0.00 0.00 0.00 0.00 0.01 0.02 0.05 0.09 0.11 0.11 0.14 0.15 0.15 0.18 0.20

GEFSSGP_prec_meanprecacc_120.txt.gz
Total_Precipitation_Accumulation
0.00 0.00 0.00 0.00 0.00 0.00 0.00 0.00 0.00 0.00 0.00 0.00 0.00 0.00 0.00 0.00 0.00 0.01 0.01 0.01 0.02 0.04 0.07 0.10 0.11 0.11 0.13 0.12 0.11 0.09 0.07 0.07 0.07 0.07 0.07 0.08 0.08 0.09 0.10 0.12 0.13 0.14 0.14 0.15 0.17 0.19 0.17 0.13 0.13
0.00 0.00 0.00 0.00 0.00 0.00 0.00 0.00 0.00 0.00 0.00 0.00 0.00 0.00 0.00 0.00 0.00 0.00 0.00 0.01 0.01 0.02 0.04 0.07 0.10 0.12 0.12 0.11 0.10 0.08 0.07 0.06 0.06 0.06 0.06 0.06 0.06 0.06 0.07 0.09 0.09 0.10 0.13 0.15 0.15 0.16 0.17 0.13 0.13
0.00 0.00 0.00 0.00 0.00 0.00 0.00 0.00 0.00 0.00 0.00 0.00 0.00 0.00 0.00 0.00 0.00 0.01 0.01 0.01 0.01 0.01 0.02 0.05 0.10 0.11 0.13 0.12 0.11 0.08 0.07 0.07 0.06 0.05 0.05 0.05 0.05 0.05 0.05 0.05 0.05 0.06 0.08 0.10 0.12 0.15 0.17 0.16 0.14
0.00 0.00 0.00 0.00 0.00 0.00 0.00 0.00 0.00 0.00 0.00 0.00 0.00 0.00 0.00 0.00 0.00 0.01 0.01 0.01 0.01 0.02 0.02 0.05 0.08 0.11 0.13 0.13 0.12 0.08 0.07 0.07 0.05 0.05 0.05 0.05 0.05 0.05 0.04 0.04 0.03 0.03 0.05 0.07 0.10 0.16 0.20 0.16 0.14
0.00 0.00 0.00 0.00 0.00 0.00 0.00 0.00 0.00 0.00 0.00 0.00 0.00 0.00 0.00 0.00 0.00 0.01 0.01 0.02 0.03 0.03 0.04 0.05 0.06 0.10 0.12 0.12 0.11 0.08 0.07 0.07 0.05 0.04 0.04 0.05 0.05 0.04 0.05 0.05 0.04 0.04 0.03 0.05 0.07 0.12 0.20 0.19 0.18
0.00 0.00 0.00 0.00 0.00 0.00 0.00 0.00 0.00 0.00 0.00 0.00 0.00 0.00 0.00 0.00 0.00 0.00 0.00 0.00 0.00 0.00 0.00 0.01 0.04 0.07 0.08 0.10 0.10 0.08 0.07 0.06 0.06 0.05 0.05 0.04 0.04 0.04 0.07 0.09 0.08 0.06 0.05 0.06 0.06 0.07 0.13 0.17 0.20
0.00 0.00 0.00 0.00 0.00 0.00 0.00 0.00 0.00 0.00 0.00 0.00 0.00 0.00 0.00 0.00 0.00 0.00 0.00 0.00 0.00 0.00 0.00 0.00 0.02 0.04 0.06 0.08 0.08 0.08 0.07 0.06 0.05 0.04 0.04 0.03 0.03 0.04 0.07 0.08 0.07 0.06 0.06 0.07 0.06 0.04 0.06 0.11 0.15
0.00 0.00 0.00 0.00 0.00 0.00 0.00 0.00 0.00 0.00 0.00 0.00 0.00 0.00 0.00 0.00 0.00 0.00 0.00 0.00 0.00 0.00 0.00 0.00 0.01 0.02 0.03 0.04 0.06 0.06 0.06 0.06 0.06 0.06 0.04 0.04 0.04 0.06 0.08 0.06 0.06 0.06 0.07 0.07 0.06 0.05 0.04 0.04 0.05
0.00 0.00 0.00 0.00 0.00 0.00 0.00 0.00 0.00 0.00 0.00 0.00 0.00 0.00 0.00 0.00 0.00 0.00 0.00 0.00 0.00 0.00 0.00 0.00 0.01 0.01 0.01 0.02 0.04 0.05 0.05 0.05 0.06 0.08 0.07 0.05 0.05 0.04 0.04 0.03 0.05 0.05 0.05 0.05 0.05 0.06 0.06 0.05 0.02
0.00 0.00 0.00 0.00 0.00 0.00 0.00 0.00 0.00 0.00 0.00 0.00 0.00 0.00 0.00 0.00 0.00 0.00 0.00 0.00 0.00 0.00 0.00 0.00 0.00 0.00 0.01 0.01 0.02 0.03 0.03 0.04 0.03 0.04 0.04 0.04 0.05 0.05 0.06 0.06 0.07 0.07 0.05 0.06 0.08 0.08 0.07 0.05 0.03
0.00 0.00 0.00 0.00 0.00 0.00 0.00 0.00 0.00 0.00 0.00 0.00 0.00 0.00 0.00 0.00 0.00 0.00 0.00 0.00 0.00 0.00 0.00 0.00 0.00 0.00 0.00 0.01 0.01 0.02 0.02 0.03 0.02 0.02 0.01 0.02 0.03 0.03 0.04 0.05 0.06 0.07 0.08 0.10 0.11 0.11 0.10 0.11 0.12
0.00 0.00 0.00 0.00 0.00 0.00 0.00 0.00 0.00 0.00 0.00 0.00 0.00 0.00 0.00 0.00 0.00 0.00 0.00 0.00 0.00 0.00 0.00 0.00 0.00 0.01 0.00 0.00 0.01 0.01 0.01 0.02 0.02 0.02 0.01 0.01 0.02 0.01 0.01 0.02 0.03 0.04 0.06 0.09 0.14 0.15 0.16 0.13 0.13
0.00 0.00 0.00 0.00 0.00 0.00 0.00 0.00 0.00 0.00 0.00 0.00 0.00 0.00 0.00 0.00 0.00 0.00 0.00 0.00 0.00 0.00 0.00 0.00 0.00 0.01 0.01 0.00 0.01 0.01 0.01 0.01 0.02 0.02 0.02 0.02 0.02 0.02 0.01 0.01 0.01 0.01 0.01 0.02 0.03 0.05 0.08 0.09 0.09
0.00 0.00 0.00 0.00 0.00 0.00 0.00 0.00 0.00 0.00 0.00 0.00 0.00 0.00 0.00 0.00 0.00 0.00 0.00 0.00 0.00 0.00 0.00 0.00 0.00 0.00 0.01 0.01 0.01 0.01 0.01 0.01 0.02 0.02 0.02 0.02 0.02 0.02 0.02 0.01 0.01 0.01 0.01 0.01 0.01 0.01 0.02 0.03 0.03
0.00 0.00 0.00 0.00 0.00 0.00 0.00 0.00 0.00 0.00 0.00 0.00 0.00 0.00 0.00 0.00 0.00 0.00 0.00 0.00 0.00 0.00 0.00 0.00 0.00 0.00 0.01 0.01 0.01 0.01 0.01 0.01 0.02 0.02 0.02 0.02 0.02 0.02 0.02 0.02 0.02 0.01 0.01 0.01 0.00 0.01 0.01 0.01 0.01
0.01 0.01 0.00 0.00 0.00 0.00 0.00 0.00 0.00 0.00 0.00 0.00 0.00 0.00 0.00 0.00 0.00 0.00 0.00 0.00 0.00 0.00 0.00 0.00 0.00 0.00 0.00 0.01 0.01 0.01 0.01 0.02 0.02 0.02 0.02 0.02 0.02 0.02 0.02 0.02 0.02 0.02 0.01 0.01 0.01 0.01 0.01 0.01 0.01
0.01 0.01 0.00 0.00 0.00 0.00 0.00 0.00 0.00 0.00 0.00 0.00 0.00 0.00 0.00 0.00 0.00 0.00 0.00 0.00 0.00 0.00 0.00 0.00 0.00 0.00 0.00 0.01 0.01 0.01 0.02 0.02 0.02 0.01 0.02 0.02 0.02 0.02 0.02 0.03 0.03 0.02 0.02 0.01 0.01 0.01 0.01 0.01 0.01
0.01 0.00 0.00 0.00 0.00 0.00 0.00 0.00 0.00 0.00 0.00 0.00 0.00 0.00 0.00 0.00 0.00 0.00 0.00 0.00 0.00 0.00 0.00 0.00 0.00 0.00 0.00 0.01 0.01 0.02 0.02 0.02 0.02 0.02 0.01 0.01 0.01 0.01 0.02 0.03 0.02 0.02 0.02 0.01 0.01 0.01 0.01 0.01 0.01
0.00 0.00 0.00 0.00 0.00 0.00 0.00 0.00 0.00 0.00 0.00 0.00 0.00 0.00 0.00 0.00 0.00 0.00 0.00 0.00 0.00 0.00 0.00 0.00 0.00 0.00 0.00 0.01 0.01 0.02 0.02 0.02 0.02 0.01 0.01 0.01 0.01 0.01 0.02 0.02 0.02 0.02 0.02 0.02 0.02 0.02 0.02 0.02 0.02
0.01 0.01 0.00 0.00 0.00 0.00 0.00 0.00 0.00 0.00 0.00 0.00 0.00 0.00 0.00 0.00 0.00 0.00 0.00 0.00 0.00 0.00 0.00 0.00 0.00 0.00 0.00 0.00 0.00 0.01 0.01 0.01 0.01 0.01 0.01 0.01 0.01 0.01 0.01 0.02 0.02 0.02 0.03 0.03 0.02 0.02 0.03 0.03 0.02
0.02 0.01 0.00 0.00 0.00 0.00 0.00 0.00 0.00 0.00 0.00 0.00 0.00 0.00 0.00 0.00 0.00 0.00 0.00 0.00 0.00 0.00 0.00 0.00 0.00 0.00 0.00 0.00 0.00 0.00 0.01 0.01 0.01 0.01 0.01 0.01 0.01 0.01 0.01 0.01 0.01 0.01 0.02 0.02 0.01 0.02 0.03 0.05 0.02
0.04 0.02 0.01 0.01 0.01 0.01 0.00 0.01 0.00 0.00 0.00 0.00 0.00 0.00 0.00 0.00 0.00 0.00 0.00 0.00 0.00 0.00 0.00 0.00 0.00 0.00 0.00 0.00 0.00 0.00 0.00 0.01 0.00 0.01 0.01 0.01 0.01 0.01 0.01 0.01 0.01 0.01 0.01 0.01 0.02 0.02 0.03 0.07 0.08
0.01 0.01 0.02 0.02 0.02 0.02 0.01 0.01 0.00 0.00 0.00 0.00 0.00 0.00 0.00 0.00 0.00 0.00 0.00 0.00 0.00 0.00 0.00 0.00 0.00 0.00 0.00 0.00 0.00 0.00 0.00 0.00 0.00 0.00 0.01 0.01 0.01 0.01 0.01 0.01 0.01 0.01 0.01 0.02 0.02 0.02 0.04 0.07 0.12
0.03 0.03 0.04 0.06 0.09 0.12 0.03 0.01 0.00 0.00 0.00 0.00 0.00 0.00 0.00 0.00 0.00 0.00 0.00 0.00 0.00 0.00 0.00 0.00 0.00 0.00 0.00 0.00 0.00 0.00 0.00 0.00 0.00 0.00 0.01 0.01 0.01 0.02 0.01 0.01 0.01 0.01 0.01 0.02 0.02 0.03 0.05 0.06 0.09
0.09 0.13 0.24 0.26 0.25 0.15 0.02 0.01 0.00 0.00 0.00 0.00 0.00 0.00 0.00 0.00 0.00 0.00 0.00 0.00 0.00 0.00 0.00 0.00 0.00 0.00 0.00 0.00 0.00 0.00 0.01 0.01 0.01 0.01 0.01 0.01 0.02 0.02 0.02 0.01 0.01 0.01 0.02 0.02 0.04 0.05 0.06 0.07 0.09
0.09 0.13 0.20 0.18 0.09 0.03 0.00 0.00 0.00 0.00 0.00 0.00 0.00 0.00 0.00 0.00 0.00 0.00 0.00 0.00 0.00 0.00 0.00 0.00 0.00 0.00 0.00 0.00 0.00 0.00 0.01 0.01 0.01 0.01 0.01 0.02 0.03 0.02 0.01 0.01 0.02 0.02 0.03 0.04 0.06 0.07 0.08 0.09 0.10
0.06 0.07 0.05 0.07 0.06 0.02 0.01 0.00 0.00 0.00 0.00 0.00 0.00 0.00 0.00 0.00 0.00 0.00 0.00 0.00 0.00 0.00 0.00 0.00 0.00 0.00 0.00 0.00 0.00 0.00 0.01 0.01 0.01 0.01 0.01 0.02 0.02 0.01 0.01 0.01 0.02 0.03 0.04 0.06 0.08 0.09 0.09 0.11 0.13
0.07 0.07 0.10 0.18 0.17 0.06 0.02 0.00 0.00 0.00 0.00 0.00 0.00 0.00 0.00 0.00 0.00 0.00 0.00 0.00 0.00 0.00 0.00 0.00 0.00 0.00 0.00 0.00 0.00 0.00 0.00 0.01 0.01 0.01 0.01 0.01 0.01 0.01 0.01 0.02 0.03 0.05 0.06 0.08 0.10 0.11 0.10 0.13 0.15
0.09 0.11 0.18 0.21 0.12 0.04 0.01 0.00 0.00 0.00 0.00 0.00 0.00 0.00 0.00 0.00 0.00 0.00 0.00 0.00 0.00 0.00 0.00 0.00 0.00 0.00 0.00 0.00 0.00 0.00 0.00 0.00 0.01 0.01 0.01 0.01 0.01 0.01 0.01 0.02 0.04 0.08 0.09 0.09 0.11 0.12 0.13 0.16 0.17
0.07 0.08 0.12 0.18 0.13 0.03 0.01 0.00 0.00 0.00 0.00 0.00 0.00 0.00 0.00 0.00 0.00 0.00 0.00 0.00 0.00 0.00 0.00 0.00 0.00 0.00 0.00 0.00 0.00 0.00 0.00 0.00 0.01 0.01 0.00 0.01 0.01 0.01 0.01 0.02 0.06 0.10 0.12 0.12 0.15 0.16 0.16 0.19 0.20

GEFSSGP_prec_meanprecacc_126.txt.gz
Total_Precipitation_Accumulation
0.00 0.00 0.00 0.00 0.00 0.00 0.00 0.00 0.00 0.00 0.00 0.00 0.00 0.00 0.00 0.00 0.00 0.01 0.01 0.01 0.02 0.04 0.07 0.11 0.12 0.13 0.14 0.13 0.11 0.09 0.08 0.07 0.08 0.08 0.07 0.08 0.09 0.09 0.10 0.12 0.13 0.14 0.14 0.15 0.17 0.19 0.18 0.13 0.14
0.00 0.00 0.00 0.00 0.00 0.00 0.00 0.00 0.00 0.00 0.00 0.00 0.00 0.00 0.00 0.00 0.00 0.00 0.00 0.01 0.01 0.02 0.04 0.07 0.11 0.13 0.14 0.12 0.11 0.08 0.07 0.06 0.06 0.06 0.06 0.06 0.07 0.07 0.08 0.09 0.10 0.11 0.13 0.15 0.15 0.16 0.17 0.14 0.13
0.00 0.00 0.00 0.00 0.00 0.00 0.00 0.00 0.00 0.00 0.00 0.00 0.00 0.00 0.00 0.00 0.00 0.01 0.01 0.01 0.01 0.01 0.02 0.06 0.11 0.13 0.14 0.13 0.11 0.08 0.07 0.07 0.07 0.06 0.05 0.05 0.06 0.06 0.06 0.06 0.05 0.06 0.08 0.10 0.12 0.15 0.17 0.16 0.14
0.00 0.00 0.00 0.00 0.00 0.00 0.00 0.00 0.00 0.00 0.00 0.00 0.00 0.00 0.00 0.00 0.00 0.01 0.01 0.01 0.01 0.02 0.02 0.06 0.10 0.13 0.14 0.14 0.12 0.09 0.07 0.07 0.06 0.05 0.05 0.06 0.06 0.06 0.05 0.05 0.04 0.03 0.05 0.07 0.11 0.16 0.20 0.16 0.14
0.00 0.00 0.00 0.00 0.00 0.00 0.00 0.00 0.00 0.00 0.00 0.00 0.00 0.00 0.00 0.00 0.00 0.01 0.01 0.02 0.03 0.03 0.04 0.06 0.08 0.12 0.13 0.13 0.11 0.08 0.07 0.07 0.06 0.05 0.05 0.05 0.05 0.05 0.05 0.06 0.05 0.04 0.04 0.05 0.07 0.12 0.20 0.19 0.18
0.00 0.00 0.00 0.00 0.00 0.00 0.00 0.00 0.00 0.00 0.00 0.00 0.00 0.00 0.00 0.00 0.00 0.00 0.00 0.00 0.00 0.00 0.01 0.02 0.06 0.09 0.10 0.12 0.11 0.08 0.07 0.07 0.06 0.05 0.05 0.04 0.04 0.05 0.07 0.09 0.08 0.06 0.05 0.06 0.06 0.07 0.13 0.17 0.20
0.00 0.00 0.00 0.00 0.00 0.00 0.00 0.00 0.00 0.00 0.00 0.00 0.00 0.00 0.00 0.00 0.00 0.00 0.00 0.00 0.00 0.00 0.00 0.01 0.04 0.06 0.08 0.09 0.09 0.08 0.07 0.06 0.06 0.05 0.04 0.04 0.04 0.04 0.07 0.08 0.07 0.06 0.06 0.07 0.06 0.04 0.06 0.11 0.16
0.01 0.01 0.00 0.00 0.00 0.00 0.00 0.00 0.00 0.00 0.00 0.00 0.00 0.00 0.00 0.00 0.00 0.00 0.00 0.00 0.00 0.00 0.00 0.01 0.02 0.03 0.05 0.06 0.07 0.07 0.07 0.06 0.07 0.06 0.04 0.04 0.04 0.06 0.08 0.06 0.06 0.06 0.07 0.07 0.06 0.06 0.04 0.04 0.05
0.01 0.01 0.00 0.00 0.00 0.00 0.00 0.00 0.00 0.00 0.00 0.00 0.00 0.00 0.00 0.00 0.00 0.00 0.00 0.00 0.00 0.00 0.00 0.01 0.01 0.02 0.03 0.04 0.05 0.06 0.06 0.06 0.07 0.08 0.07 0.05 0.05 0.04 0.04 0.03 0.05 0.05 0.05 0.05 0.06 0.06 0.06 0.05 0.02
0.01 0.01 0.00 0.00 0.00 0.00 0.00 0.00 0.00 0.00 0.00 0.00 0.00 0.00 0.00 0.00 0.00 0.00 0.00 0.00 0.00 0.00 0.01 0.01 0.01 0.01 0.02 0.02 0.04 0.04 0.04 0.04 0.03 0.04 0.04 0.05 0.05 0.05 0.06 0.06 0.08 0.07 0.05 0.06 0.08 0.08 0.07 0.05 0.03
0.00 0.00 0.00 0.00 0.00 0.00 0.00 0.00 0.00 0.00 0.00 0.00 0.00 0.00 0.00 0.00 0.00 0.00 0.00 0.00 0.00 0.00 0.00 0.00 0.01 0.01 0.01 0.02 0.02 0.03 0.03 0.03 0.03 0.02 0.01 0.02 0.03 0.03 0.04 0.05 0.06 0.07 0.08 0.10 0.11 0.11 0.11 0.11 0.12
0.00 0.00 0.00 0.00 0.00 0.00 0.00 0.00 0.00 0.00 0.00 0.00 0.00 0.00 0.00 0.00 0.00 0.00 0.00 0.00 0.00 0.00 0.00 0.00 0.01 0.01 0.01 0.01 0.01 0.02 0.02 0.02 0.02 0.02 0.01 0.01 0.02 0.02 0.01 0.02 0.03 0.04 0.07 0.09 0.14 0.15 0.16 0.13 0.13
0.01 0.00 0.00 0.00 0.00 0.00 0.00 0.00 0.00 0.00 0.00 0.00 0.00 0.00 0.00 0.00 0.00 0.00 0.00 0.00 0.00 0.00 0.00 0.00 0.00 0.01 0.01 0.01 0.01 0.01 0.01 0.02 0.02 0.02 0.02 0.02 0.02 0.02 0.01 0.01 0.01 0.01 0.02 0.02 0.03 0.05 0.08 0.09 0.09
0.01 0.01 0.00 0.00 0.00 0.00 0.00 0.00 0.00 0.00 0.00 0.00 0.00 0.00 0.00 0.00 0.00 0.00 0.00 0.00 0.00 0.00 0.00 0.00 0.00 0.01 0.01 0.01 0.01 0.01 0.01 0.01 0.02 0.02 0.02 0.02 0.02 0.02 0.02 0.01 0.01 0.01 0.01 0.01 0.01 0.01 0.02 0.03 0.03
0.01 0.02 0.01 0.01 0.00 0.00 0.00 0.00 0.00 0.00 0.00 0.00 0.00 0.00 0.00 0.00 0.00 0.00 0.00 0.00 0.00 0.00 0.00 0.00 0.00 0.00 0.01 0.01 0.01 0.01 0.01 0.02 0.02 0.02 0.02 0.02 0.02 0.02 0.02 0.02 0.02 0.01 0.01 0.01 0.01 0.01 0.01 0.01 0.01
0.03 0.04 0.03 0.01 0.00 0.00 0.00 0.00 0.00 0.00 0.00 0.00 0.00 0.00 0.00 0.00 0.00 0.00 0.00 0.00 0.00 0.00 0.00 0.00 0.00 0.00 0.01 0.01 0.01 0.02 0.02 0.02 0.02 0.02 0.02 0.02 0.02 0.02 0.02 0.02 0.02 0.02 0.02 0.01 0.01 0.01 0.01 0.01 0.01
0.07 0.04 0.02 0.01 0.00 0.00 0.00 0.00 0.00 0.00 0.00 0.00 0.00 0.00 0.00 0.00 0.00 0.00 0.00 0.00 0.00 0.00 0.00 0.00 0.00 0.00 0.00 0.01 0.01 0.02 0.02 0.02 0.02 0.02 0.02 0.02 0.02 0.02 0.02 0.03 0.03 0.02 0.02 0.01 0.01 0.01 0.01 0.01 0.01
0.08 0.03 0.01 0.00 0.00 0.00 0.00 0.00 0.00 0.00 0.00 0.00 0.00 0.00 0.00 0.00 0.00 0.00 0.00 0.00 0.00 0.00 0.00 0.00 0.00 0.00 0.00 0.01 0.02 0.02 0.02 0.02 0.02 0.02 0.01 0.01 0.01 0.01 0.02 0.03 0.02 0.02 0.02 0.02 0.01 0.02 0.01 0.02 0.02
0.04 0.03 0.01 0.00 0.00 0.00 0.00 0.00 0.00 0.00 0.00 0.00 0.00 0.00 0.00 0.00 0.00 0.00 0.00 0.00 0.00 0.00 0.00 0.00 0.00 0.00 0.01 0.01 0.02 0.02 0.02 0.02 0.02 0.02 0.01 0.01 0.01 0.01 0.02 0.02 0.02 0.02 0.02 0.02 0.02 0.02 0.02 0.02 0.02
0.07 0.06 0.03 0.01 0.00 0.01 0.01 0.00 0.00 0.00 0.00 0.00 0.00 0.00 0.00 0.00 0.00 0.00 0.00 0.00 0.00 0.00 0.00 0.00 0.00 0.00 0.00 0.00 0.00 0.01 0.01 0.01 0.01 0.01 0.01 0.01 0.01 0.01 0.01 0.02 0.02 0.02 0.03 0.03 0.03 0.03 0.03 0.03 0.02
0.11 0.08 0.04 0.02 0.02 0.02 0.02 0.01 0.00 0.00 0.00 0.00 0.00 0.00 0.00 0.00 0.00 0.00 0.00 0.00 0.00 0.00 0.00 0.00 0.00 0.00 0.00 0.00 0.00 0.01 0.01 0.01 0.01 0.02 0.01 0.01 0.01 0.01 0.01 0.01 0.01 0.01 0.02 0.02 0.02 0.02 0.03 0.05 0.02
0.13 0.07 0.05 0.04 0.05 0.04 0.03 0.03 0.00 0.00 0.00 0.00 0.00 0.00 0.00 0.00 0.00 0.00 0.00 0.00 0.00 0.00 0.00 0.00 0.00 0.00 0.00 0.00 0.00 0.00 0.01 0.01 0.00 0.01 0.01 0.01 0.01 0.01 0.01 0.01 0.01 0.01 0.01 0.02 0.02 0.02 0.03 0.07 0.08
0.11 0.06 0.06 0.07 0.09 0.10 0.06 0.06 0.02 0.00 0.00 0.00 0.00 0.00 0.00 0.00 0.00 0.00 0.00 0.00 0.00 0.00 0.00 0.00 0.00 0.00 0.00 0.00 0.00 0.00 0.00 0.00 0.00 0.00 0.01 0.01 0.01 0.01 0.01 0.01 0.01 0.01 0.01 0.02 0.02 0.03 0.04 0.07 0.12
0.11 0.13 0.14 0.15 0.22 0.31 0.09 0.05 0.03 0.00 0.00 0.00 0.00 0.00 0.00 0.00 0.00 0.00 0.00 0.00 0.00 0.00 0.00 0.00 0.00 0.00 0.00 0.00 0.00 0.00 0.00 0.00 0.00 0.00 0.01 0.01 0.02 0.02 0.02 0.01 0.02 0.01 0.02 0.02 0.03 0.04 0.05 0.07 0.09
0.21 0.34 0.55 0.57 0.56 0.33 0.05 0.03 0.02 0.00 0.00 0.00 0.00 0.00 0.00 0.00 0.00 0.00 0.00 0.00 0.00 0.00 0.00 0.00 0.00 0.00 0.00 0.00 0.00 0.00 0.01 0.01 0.01 0.01 0.01 0.01 0.03 0.03 0.02 0.02 0.02 0.02 0.02 0.03 0.04 0.06 0.06 0.07 0.10
0.23 0.29 0.41 0.38 0.24 0.07 0.01 0.01 0.00 0.00 0.00 0.00 0.00 0.00 0.00 0.00 0.00 0.00 0.00 0.00 0.00 0.00 0.00 0.00 0.00 0.00 0.00 0.00 0.00 0.00 0.01 0.01 0.01 0.01 0.01 0.02 0.04 0.03 0.02 0.02 0.02 0.03 0.03 0.05 0.06 0.08 0.09 0.10 0.11
0.19 0.21 0.17 0.19 0.14 0.08 0.03 0.01 0.00 0.00 0.00 0.00 0.00 0.00 0.00 0.00 0.00 0.00 0.00 0.00 0.00 0.00 0.00 0.00 0.00 0.00 0.00 0.00 0.00 0.00 0.01 0.01 0.01 0.01 0.01 0.02 0.02 0.01 0.01 0.02 0.03 0.04 0.05 0.08 0.10 0.11 0.11 0.12 0.14
0.20 0.21 0.26 0.40 0.32 0.13 0.05 0.01 0.00 0.00 0.00 0.00 0.00 0.00 0.00 0.00 0.00 0.00 0.00 0.00 0.00 0.00 0.00 0.00 0.00 0.00 0.00 0.00 0.00 0.00 0.01 0.01 0.01 0.01 0.01 0.01 0.01 0.01 0.01 0.02 0.03 0.05 0.07 0.08 0.11 0.12 0.12 0.15 0.17
0.24 0.31 0.40 0.41 0.26 0.12 0.05 0.01 0.00 0.00 0.00 0.00 0.00 0.00 0.00 0.00 0.00 0.00 0.00 0.00 0.00 0.00 0.00 0.00 0.00 0.00 0.00 0.00 0.00 0.00 0.01 0.01 0.01 0.01 0.01 0.01 0.01 0.01 0.02 0.03 0.05 0.08 0.09 0.10 0.12 0.13 0.14 0.17 0.18
0.20 0.25 0.32 0.36 0.25 0.08 0.04 0.01 0.00 0.00 0.00 0.00 0.00 0.00 0.00 0.00 0.00 0.00 0.00 0.00 0.00 0.00 0.00 0.00 0.00 0.00 0.00 0.00 0.00 0.00 0.00 0.01 0.01 0.01 0.01 0.01 0.01 0.01 0.02 0.03 0.06 0.11 0.13 0.13 0.15 0.16 0.17 0.20 0.22

GEFSSGP_prec_meanprecacc_132.txt.gz
Total_Precipitation_Accumulation
0.00 0.00 0.00 0.00 0.00 0.00 0.00 0.00 0.00 0.00 0.00 0.00 0.00 0.00 0.00 0.00 0.00 0.01 0.01 0.01 0.02 0.04 0.07 0.11 0.13 0.13 0.15 0.14 0.12 0.10 0.08 0.08 0.09 0.08 0.08 0.09 0.10 0.10 0.11 0.13 0.14 0.15 0.15 0.16 0.18 0.20 0.18 0.13 0.14
0.00 0.00 0.00 0.00 0.00 0.00 0.00 0.00 0.00 0.00 0.00 0.00 0.00 0.00 0.00 0.00 0.00 0.00 0.00 0.01 0.01 0.02 0.04 0.08 0.12 0.14 0.15 0.13 0.11 0.09 0.08 0.07 0.07 0.07 0.07 0.07 0.07 0.08 0.09 0.10 0.10 0.11 0.13 0.15 0.15 0.17 0.17 0.14 0.14
0.00 0.00 0.00 0.00 0.00 0.00 0.00 0.00 0.00 0.00 0.00 0.00 0.00 0.00 0.00 0.00 0.00 0.01 0.01 0.01 0.01 0.01 0.02 0.06 0.11 0.14 0.15 0.14 0.12 0.09 0.08 0.08 0.08 0.07 0.06 0.06 0.06 0.07 0.06 0.06 0.06 0.06 0.08 0.10 0.12 0.16 0.17 0.16 0.14
0.00 0.00 0.00 0.00 0.00 0.00 0.00 0.00 0.00 0.00 0.00 0.00 0.00 0.00 0.00 0.00 0.00 0.01 0.01 0.01 0.01 0.02 0.02 0.06 0.10 0.14 0.15 0.15 0.12 0.09 0.08 0.08 0.06 0.06 0.06 0.07 0.07 0.07 0.06 0.05 0.04 0.04 0.05 0.08 0.11 0.16 0.20 0.16 0.14
0.01 0.01 0.00 0.00 0.00 0.00 0.00 0.00 0.00 0.00 0.00 0.00 0.00 0.00 0.00 0.00 0.00 0.01 0.01 0.02 0.03 0.03 0.04 0.06 0.09 0.14 0.14 0.14 0.12 0.09 0.08 0.07 0.06 0.06 0.06 0.06 0.06 0.05 0.06 0.06 0.05 0.04 0.04 0.05 0.08 0.12 0.20 0.19 0.18
0.02 0.01 0.00 0.00 0.00 0.00 0.00 0.00 0.00 0.00 0.00 0.00 0.00 0.00 0.00 0.00 0.00 0.00 0.00 0.00 0.00 0.00 0.01 0.02 0.07 0.10 0.11 0.13 0.11 0.09 0.08 0.07 0.07 0.06 0.06 0.05 0.05 0.06 0.08 0.10 0.08 0.07 0.06 0.06 0.06 0.08 0.13 0.17 0.20
0.02 0.01 0.00 0.00 0.00 0.00 0.00 0.00 0.00 0.00 0.00 0.00 0.00 0.00 0.00 0.00 0.00 0.00 0.00 0.00 0.00 0.00 0.00 0.02 0.05 0.08 0.09 0.10 0.10 0.08 0.08 0.07 0.06 0.05 0.05 0.05 0.04 0.05 0.08 0.08 0.07 0.07 0.07 0.07 0.06 0.05 0.06 0.11 0.16
0.02 0.02 0.01 0.00 0.00 0.00 0.00 0.00 0.00 0.00 0.00 0.00 0.00 0.00 0.00 0.00 0.00 0.00 0.00 0.00 0.00 0.00 0.01 0.01 0.03 0.05 0.06 0.07 0.07 0.07 0.07 0.07 0.07 0.07 0.05 0.05 0.05 0.07 0.08 0.06 0.06 0.06 0.07 0.07 0.06 0.06 0.04 0.04 0.06
0.03 0.03 0.01 0.00 0.00 0.00 0.00 0.00 0.00 0.00 0.00 0.00 0.00 0.00 0.00 0.00 0.00 0.00 0.00 0.00 0.00 0.00 0.01 0.01 0.02 0.04 0.05 0.05 0.05 0.06 0.07 0.06 0.07 0.08 0.07 0.06 0.05 0.05 0.04 0.03 0.05 0.06 0.05 0.05 0.06 0.07 0.06 0.05 0.02
0.03 0.02 0.00 0.00 0.00 0.00 0.00 0.00 0.00 0.00 0.00 0.00 0.00 0.00 0.00 0.00 0.00 0.00 0.00 0.00 0.00 0.00 0.01 0.01 0.02 0.03 0.04 0.04 0.04 0.05 0.05 0.05 0.04 0.04 0.05 0.05 0.06 0.06 0.07 0.06 0.08 0.07 0.05 0.07 0.08 0.08 0.07 0.05 0.03
0.02 0.01 0.00 0.00 0.00 0.00 0.00 0.00 0.00 0.00 0.00 0.00 0.00 0.00 0.00 0.00 0.00 0.00 0.00 0.00 0.00 0.00 0.00 0.01 0.01 0.02 0.03 0.03 0.03 0.04 0.04 0.04 0.03 0.02 0.02 0.02 0.03 0.03 0.05 0.05 0.06 0.07 0.08 0.11 0.11 0.11 0.11 0.11 0.12
0.02 0.00 0.00 0.00 0.00 0.00 0.00 0.00 0.00 0.00 0.00 0.00 0.00 0.00 0.00 0.00 0.00 0.00 0.00 0.00 0.00 0.00 0.00 0.00 0.01 0.02 0.02 0.02 0.02 0.03 0.03 0.03 0.03 0.02 0.01 0.02 0.02 0.02 0.01 0.02 0.03 0.04 0.07 0.10 0.14 0.15 0.16 0.14 0.13
0.03 0.01 0.00 0.00 0.00 0.00 0.00 0.00 0.00 0.00 0.00 0.00 0.00 0.00 0.00 0.00 0.00 0.00 0.00 0.00 0.00 0.00 0.00 0.00 0.01 0.02 0.02 0.02 0.02 0.02 0.02 0.02 0.02 0.02 0.02 0.02 0.02 0.02 0.01 0.01 0.01 0.02 0.02 0.02 0.04 0.05 0.08 0.09 0.09
0.03 0.02 0.01 0.01 0.00 0.00 0.00 0.00 0.00 0.00 0.00 0.00 0.00 0.00 0.00 0.00 0.00 0.00 0.00 0.00 0.00 0.00 0.00 0.00 0.00 0.01 0.02 0.02 0.02 0.02 0.02 0.02 0.02 0.02 0.02 0.02 0.02 0.02 0.02 0.02 0.01 0.01 0.01 0.01 0.01 0.01 0.02 0.03 0.03
0.04 0.05 0.04 0.02 0.01 0.00 0.00 0.00 0.00 0.00 0.00 0.00 0.00 0.00 0.00 0.00 0.00 0.00 0.00 0.00 0.00 0.00 0.00 0.00 0.00 0.01 0.01 0.01 0.01 0.02 0.02 0.02 0.02 0.02 0.02 0.02 0.02 0.02 0.02 0.02 0.02 0.01 0.01 0.01 0.01 0.01 0.01 0.01 0.01
0.09 0.10 0.07 0.02 0.01 0.00 0.02 0.01 0.00 0.00 0.00 0.00 0.00 0.00 0.00 0.00 0.00 0.00 0.00 0.00 0.00 0.00 0.00 0.00 0.00 0.01 0.01 0.01 0.02 0.02 0.02 0.03 0.02 0.02 0.02 0.02 0.02 0.02 0.02 0.02 0.02 0.02 0.02 0.02 0.02 0.02 0.01 0.02 0.01
0.16 0.12 0.06 0.02 0.01 0.01 0.02 0.01 0.00 0.00 0.00 0.00 0.00 0.00 0.00 0.00 0.00 0.00 0.00 0.00 0.00 0.00 0.00 0.00 0.00 0.00 0.01 0.01 0.02 0.02 0.02 0.03 0.02 0.02 0.02 0.02 0.02 0.02 0.02 0.03 0.03 0.02 0.02 0.02 0.02 0.01 0.01 0.02 0.01
0.17 0.08 0.03 0.01 0.01 0.01 0.02 0.01 0.00 0.00 0.00 0.00 0.00 0.00 0.00 0.00 0.00 0.00 0.00 0.00 0.00 0.00 0.00 0.00 0.00 0.00 0.01 0.02 0.02 0.03 0.03 0.03 0.02 0.02 0.02 0.01 0.01 0.01 0.02 0.03 0.02 0.02 0.02 0.02 0.02 0.02 0.02 0.02 0.02
0.08 0.07 0.05 0.02 0.01 0.02 0.03 0.01 0.00 0.00 0.00 0.00 0.00 0.00 0.00 0.00 0.00 0.00 0.00 0.00 0.00 0.00 0.00 0.00 0.00 0.00 0.01 0.02 0.02 0.03 0.03 0.02 0.02 0.02 0.01 0.01 0.01 0.01 0.02 0.02 0.02 0.02 0.03 0.02 0.02 0.02 0.02 0.02 0.02
0.12 0.12 0.08 0.04 0.02 0.04 0.04 0.02 0.00 0.00 0.00 0.00 0.00 0.00 0.00 0.00 0.00 0.00 0.00 0.00 0.00 0.00 0.00 0.00 0.00 0.00 0.00 0.01 0.01 0.01 0.01 0.02 0.02 0.02 0.01 0.01 0.01 0.01 0.02 0.02 0.02 0.03 0.03 0.03 0.03 0.03 0.03 0.03 0.03
0.18 0.15 0.09 0.06 0.05 0.06 0.07 0.04 0.01 0.00 0.00 0.00 0.00 0.00 0.00 0.00 0.00 0.00 0.00 0.00 0.00 0.00 0.00 0.00 0.00 0.00 0.00 0.00 0.00 0.01 0.01 0.02 0.02 0.02 0.02 0.01 0.01 0.01 0.01 0.01 0.02 0.02 0.02 0.02 0.02 0.02 0.04 0.05 0.03
0.21 0.12 0.10 0.10 0.13 0.13 0.10 0.10 0.02 0.00 0.00 0.00 0.00 0.00 0.00 0.00 0.00 0.00 0.00 0.00 0.00 0.00 0.00 0.00 0.00 0.00 0.00 0.00 0.00 0.01 0.01 0.01 0.01 0.01 0.01 0.01 0.01 0.01 0.01 0.01 0.01 0.01 0.01 0.02 0.02 0.02 0.03 0.07 0.09
0.16 0.09 0.12 0.17 0.21 0.23 0.15 0.14 0.04 0.00 0.00 0.00 0.00 0.00 0.00 0.00 0.00 0.00 0.00 0.00 0.00 0.00 0.00 0.00 0.00 0.00 0.00 0.00 0.00 0.00 0.00 0.00 0.00 0.00 0.01 0.01 0.01 0.01 0.01 0.01 0.01 0.01 0.01 0.02 0.02 0.03 0.04 0.08 0.12
0.15 0.19 0.25 0.30 0.43 0.56 0.20 0.13 0.06 0.00 0.00 0.00 0.00 0.00 0.00 0.00 0.00 0.00 0.00 0.00 0.00 0.00 0.00 0.00 0.00 0.00 0.00 0.00 0.00 0.00 0.00 0.00 0.00 0.01 0.01 0.01 0.02 0.02 0.02 0.02 0.02 0.02 0.02 0.02 0.03 0.04 0.05 0.07 0.09
0.31 0.49 0.79 0.85 0.87 0.54 0.09 0.08 0.04 0.00 0.00 0.00 0.00 0.00 0.00 0.00 0.00 0.00 0.00 0.00 0.00 0.00 0.00 0.00 0.00 0.00 0.00 0.00 0.00 0.00 0.01 0.01 0.01 0.01 0.01 0.01 0.03 0.03 0.02 0.02 0.02 0.02 0.02 0.03 0.04 0.06 0.07 0.07 0.10
0.35 0.43 0.60 0.56 0.36 0.13 0.03 0.05 0.01 0.00 0.00 0.00 0.00 0.00 0.00 0.00 0.00 0.00 0.00 0.00 0.00 0.00 0.00 0.00 0.00 0.00 0.00 0.00 0.00 0.00 0.01 0.01 0.01 0.01 0.01 0.02 0.04 0.03 0.02 0.02 0.02 0.03 0.03 0.05 0.07 0.08 0.09 0.10 0.12
0.32 0.32 0.25 0.29 0.23 0.15 0.08 0.03 0.00 0.00 0.00 0.00 0.00 0.00 0.00 0.00 0.00 0.00 0.00 0.00 0.00 0.00 0.00 0.00 0.00 0.00 0.00 0.00 0.00 0.00 0.01 0.01 0.01 0.01 0.01 0.02 0.02 0.02 0.01 0.02 0.03 0.04 0.05 0.08 0.10 0.11 0.11 0.13 0.14
0.31 0.35 0.39 0.58 0.48 0.23 0.09 0.03 0.01 0.01 0.01 0.00 0.00 0.00 0.00 0.00 0.00 0.00 0.00 0.00 0.00 0.00 0.00 0.00 0.00 0.00 0.00 0.00 0.00 0.00 0.01 0.01 0.01 0.01 0.01 0.02 0.01 0.01 0.01 0.02 0.04 0.05 0.07 0.09 0.11 0.13 0.13 0.15 0.18
0.38 0.49 0.64 0.63 0.39 0.21 0.10 0.03 0.01 0.02 0.01 0.01 0.01 0.01 0.01 0.01 0.00 0.00 0.00 0.00 0.00 0.00 0.00 0.00 0.00 0.00 0.00 0.00 0.00 0.00 0.01 0.01 0.01 0.01 0.01 0.01 0.01 0.01 0.02 0.03 0.05 0.08 0.10 0.10 0.13 0.14 0.15 0.18 0.19
0.34 0.43 0.53 0.59 0.39 0.14 0.08 0.03 0.02 0.02 0.01 0.01 0.01 0.01 0.00 0.00 0.00 0.00 0.00 0.00 0.00 0.00 0.00 0.00 0.00 0.00 0.00 0.00 0.00 0.00 0.00 0.01 0.01 0.01 0.01 0.01 0.01 0.01 0.02 0.03 0.06 0.11 0.13 0.13 0.16 0.17 0.17 0.21 0.22

GEFSSGP_prec_meanprecacc_138.txt.gz
Total_Precipitation_Accumulation
0.00 0.00 0.00 0.00 0.00 0.00 0.00 0.00 0.00 0.00 0.00 0.00 0.00 0.00 0.00 0.00 0.00 0.01 0.01 0.01 0.02 0.04 0.07 0.12 0.14 0.14 0.16 0.15 0.13 0.11 0.09 0.09 0.10 0.09 0.09 0.10 0.11 0.11 0.12 0.13 0.15 0.16 0.16 0.17 0.18 0.20 0.18 0.13 0.14
0.00 0.00 0.00 0.00 0.00 0.00 0.00 0.00 0.00 0.00 0.00 0.00 0.00 0.00 0.00 0.00 0.00 0.00 0.00 0.01 0.01 0.02 0.04 0.08 0.13 0.15 0.16 0.14 0.12 0.10 0.09 0.08 0.08 0.08 0.08 0.08 0.08 0.08 0.10 0.11 0.11 0.12 0.14 0.16 0.16 0.17 0.17 0.14 0.14
0.00 0.00 0.01 0.01 0.00 0.00 0.00 0.00 0.00 0.00 0.00 0.00 0.00 0.00 0.00 0.00 0.00 0.01 0.01 0.01 0.01 0.01 0.02 0.07 0.12 0.15 0.16 0.15 0.13 0.10 0.09 0.09 0.09 0.08 0.07 0.07 0.07 0.08 0.07 0.07 0.06 0.07 0.08 0.10 0.12 0.16 0.17 0.16 0.14
0.00 0.01 0.01 0.00 0.00 0.00 0.00 0.00 0.00 0.00 0.00 0.00 0.00 0.00 0.00 0.00 0.00 0.01 0.01 0.01 0.01 0.02 0.03 0.07 0.11 0.15 0.17 0.16 0.13 0.10 0.09 0.09 0.08 0.07 0.07 0.07 0.08 0.08 0.06 0.05 0.04 0.04 0.05 0.08 0.11 0.16 0.20 0.16 0.14
0.02 0.02 0.01 0.00 0.00 0.00 0.00 0.00 0.00 0.00 0.00 0.00 0.00 0.00 0.00 0.00 0.00 0.01 0.01 0.02 0.03 0.03 0.04 0.07 0.10 0.15 0.16 0.15 0.13 0.10 0.09 0.09 0.07 0.07 0.06 0.07 0.07 0.06 0.06 0.06 0.05 0.04 0.04 0.06 0.08 0.12 0.20 0.19 0.18
0.04 0.03 0.01 0.00 0.00 0.00 0.00 0.00 0.00 0.00 0.00 0.00 0.00 0.00 0.00 0.00 0.00 0.00 0.00 0.00 0.00 0.00 0.01 0.03 0.09 0.12 0.13 0.14 0.12 0.10 0.09 0.08 0.08 0.07 0.07 0.06 0.06 0.06 0.08 0.10 0.09 0.07 0.06 0.06 0.06 0.08 0.13 0.17 0.20
0.03 0.03 0.01 0.00 0.00 0.00 0.00 0.00 0.00 0.00 0.00 0.00 0.00 0.00 0.00 0.00 0.00 0.00 0.00 0.00 0.00 0.00 0.01 0.02 0.06 0.09 0.11 0.12 0.11 0.09 0.08 0.07 0.07 0.06 0.06 0.05 0.05 0.06 0.08 0.09 0.07 0.07 0.07 0.07 0.06 0.05 0.06 0.11 0.16
0.04 0.05 0.02 0.00 0.00 0.00 0.00 0.00 0.00 0.00 0.00 0.00 0.00 0.00 0.00 0.00 0.00 0.00 0.00 0.00 0.00 0.00 0.01 0.02 0.04 0.06 0.07 0.09 0.09 0.08 0.08 0.07 0.08 0.07 0.05 0.05 0.05 0.07 0.09 0.07 0.07 0.07 0.07 0.07 0.07 0.06 0.04 0.04 0.06
0.07 0.08 0.02 0.00 0.00 0.00 0.00 0.00 0.00 0.00 0.00 0.00 0.00 0.00 0.00 0.00 0.00 0.00 0.00 0.00 0.01 0.01 0.01 0.02 0.03 0.04 0.05 0.06 0.06 0.07 0.07 0.07 0.08 0.09 0.07 0.06 0.05 0.05 0.05 0.04 0.05 0.06 0.05 0.05 0.06 0.07 0.06 0.05 0.02
0.09 0.06 0.01 0.00 0.00 0.00 0.00 0.00 0.00 0.00 0.00 0.00 0.00 0.00 0.00 0.00 0.00 0.00 0.00 0.00 0.01 0.01 0.01 0.02 0.02 0.03 0.05 0.05 0.05 0.06 0.05 0.05 0.04 0.04 0.05 0.05 0.06 0.06 0.07 0.07 0.08 0.07 0.05 0.07 0.08 0.08 0.07 0.05 0.03
0.06 0.03 0.00 0.00 0.00 0.00 0.00 0.00 0.00 0.00 0.00 0.00 0.00 0.00 0.00 0.00 0.00 0.00 0.00 0.00 0.00 0.00 0.01 0.02 0.02 0.03 0.04 0.04 0.04 0.04 0.04 0.04 0.03 0.02 0.02 0.02 0.03 0.04 0.05 0.05 0.07 0.07 0.08 0.11 0.11 0.11 0.11 0.11 0.12
0.05 0.02 0.01 0.00 0.00 0.00 0.00 0.00 0.00 0.00 0.00 0.00 0.00 0.00 0.00 0.00 0.00 0.00 0.00 0.00 0.00 0.00 0.01 0.02 0.02 0.02 0.03 0.03 0.03 0.03 0.03 0.03 0.03 0.02 0.02 0.02 0.02 0.02 0.02 0.02 0.03 0.04 0.07 0.10 0.14 0.15 0.16 0.14 0.13
0.05 0.02 0.01 0.01 0.01 0.01 0.01 0.00 0.00 0.00 0.00 0.00 0.00 0.00 0.00 0.01 0.00 0.00 0.00 0.00 0.00 0.00 0.01 0.01 0.02 0.03 0.03 0.02 0.03 0.03 0.03 0.03 0.02 0.02 0.02 0.02 0.02 0.02 0.01 0.01 0.01 0.02 0.02 0.02 0.04 0.05 0.08 0.09 0.09
0.06 0.04 0.03 0.02 0.02 0.02 0.02 0.01 0.00 0.00 0.00 0.00 0.00 0.00 0.00 0.01 0.01 0.01 0.01 0.01 0.00 0.01 0.01 0.01 0.02 0.03 0.03 0.02 0.02 0.02 0.02 0.02 0.02 0.02 0.02 0.02 0.02 0.02 0.02 0.02 0.01 0.01 0.01 0.01 0.01 0.01 0.02 0.03 0.03
0.08 0.10 0.07 0.03 0.02 0.02 0.04 0.03 0.00 0.00 0.00 0.00 0.00 0.00 0.00 0.00 0.01 0.01 0.01 0.01 0.01 0.00 0.01 0.01 0.01 0.02 0.03 0.02 0.02 0.02 0.02 0.02 0.02 0.02 0.02 0.02 0.02 0.02 0.02 0.02 0.02 0.01 0.01 0.01 0.01 0.01 0.01 0.01 0.01
0.15 0.19 0.15 0.05 0.02 0.02 0.07 0.06 0.01 0.00 0.00 0.00 0.00 0.00 0.01 0.00 0.00 0.01 0.01 0.01 0.01 0.01 0.01 0.02 0.02 0.01 0.02 0.02 0.02 0.02 0.02 0.03 0.03 0.02 0.02 0.02 0.02 0.02 0.02 0.03 0.02 0.02 0.02 0.02 0.02 0.02 0.01 0.02 0.01
0.24 0.20 0.13 0.06 0.03 0.03 0.06 0.05 0.01 0.00 0.00 0.00 0.00 0.00 0.01 0.01 0.00 0.00 0.01 0.01 0.01 0.01 0.01 0.02 0.02 0.01 0.01 0.02 0.02 0.02 0.03 0.03 0.03 0.02 0.02 0.02 0.02 0.02 0.02 0.03 0.03 0.02 0.02 0.02 0.02 0.01 0.01 0.02 0.01
0.24 0.14 0.08 0.05 0.04 0.05 0.06 0.03 0.01 0.00 0.00 0.00 0.00 0.00 0.01 0.01 0.00 0.00 0.00 0.01 0.01 0.01 0.01 0.02 0.03 0.03 0.02 0.03 0.03 0.04 0.03 0.03 0.03 0.02 0.02 0.01 0.01 0.02 0.02 0.03 0.02 0.02 0.02 0.02 0.02 0.02 0.02 0.02 0.02
0.13 0.14 0.12 0.07 0.05 0.08 0.08 0.05 0.02 0.01 0.01 0.01 0.00 0.00 0.00 0.01 0.00 0.00 0.00 0.00 0.01 0.02 0.02 0.02 0.03 0.03 0.04 0.03 0.03 0.04 0.03 0.03 0.03 0.02 0.01 0.01 0.01 0.01 0.02 0.02 0.02 0.02 0.03 0.02 0.02 0.02 0.02 0.02 0.02
0.19 0.20 0.16 0.11 0.08 0.12 0.11 0.05 0.02 0.01 0.01 0.01 0.01 0.00 0.00 0.00 0.00 0.00 0.00 0.00 0.00 0.02 0.02 0.02 0.02 0.02 0.03 0.02 0.01 0.01 0.02 0.02 0.02 0.02 0.02 0.01 0.01 0.01 0.02 0.02 0.02 0.03 0.03 0.03 0.03 0.03 0.03 0.03 0.03
0.26 0.21 0.13 0.11 0.10 0.13 0.15 0.10 0.02 0.00 0.00 0.01 0.01 0.00 0.00 0.00 0.00 0.00 0.00 0.00 0.00 0.01 0.02 0.02 0.02 0.02 0.03 0.02 0.02 0.02 0.02 0.03 0.02 0.02 0.02 0.01 0.01 0.01 0.01 0.01 0.02 0.02 0.02 0.02 0.02 0.02 0.04 0.05 0.03
0.28 0.15 0.14 0.15 0.22 0.24 0.19 0.19 0.03 0.00 0.00 0.00 0.00 0.00 0.00 0.00 0.00 0.00 0.00 0.00 0.00 0.00 0.01 0.02 0.02 0.02 0.03 0.04 0.03 0.02 0.01 0.01 0.01 0.01 0.01 0.01 0.01 0.01 0.01 0.01 0.01 0.02 0.01 0.02 0.02 0.02 0.03 0.07 0.09
0.22 0.13 0.17 0.24 0.32 0.36 0.25 0.24 0.07 0.00 0.00 0.00 0.00 0.00 0.00 0.00 0.00 0.00 0.00 0.00 0.00 0.00 0.01 0.01 0.02 0.02 0.02 0.03 0.03 0.02 0.01 0.00 0.00 0.00 0.01 0.01 0.01 0.01 0.01 0.02 0.02 0.02 0.02 0.02 0.02 0.03 0.04 0.08 0.13
0.22 0.27 0.33 0.39 0.58 0.74 0.27 0.21 0.10 0.01 0.00 0.00 0.00 0.00 0.00 0.00 0.00 0.00 0.00 0.00 0.00 0.00 0.01 0.01 0.02 0.03 0.02 0.02 0.02 0.02 0.01 0.01 0.01 0.01 0.01 0.01 0.02 0.02 0.02 0.02 0.02 0.02 0.02 0.02 0.03 0.04 0.05 0.07 0.09
0.41 0.62 0.96 1.02 1.04 0.64 0.11 0.12 0.07 0.00 0.00 0.00 0.00 0.00 0.00 0.00 0.00 0.00 0.00 0.00 0.00 0.00 0.01 0.02 0.03 0.03 0.03 0.02 0.02 0.02 0.02 0.01 0.01 0.01 0.01 0.02 0.03 0.03 0.02 0.02 0.02 0.02 0.02 0.03 0.04 0.06 0.07 0.07 0.10
0.44 0.55 0.73 0.68 0.44 0.16 0.04 0.06 0.02 0.00 0.00 0.00 0.00 0.00 0.00 0.00 0.00 0.00 0.00 0.00 0.00 0.00 0.00 0.01 0.02 0.02 0.03 0.03 0.02 0.02 0.02 0.02 0.01 0.01 0.01 0.02 0.04 0.03 0.02 0.02 0.03 0.03 0.03 0.05 0.07 0.08 0.09 0.10 0.12
0.41 0.41 0.32 0.40 0.32 0.20 0.11 0.04 0.01 0.00 0.00 0.00 0.00 0.00 0.00 0.00 0.00 0.00 0.00 0.00 0.00 0.00 0.00 0.01 0.01 0.01 0.02 0.03 0.03 0.03 0.02 0.02 0.01 0.01 0.02 0.02 0.02 0.02 0.01 0.02 0.03 0.04 0.05 0.08 0.10 0.11 0.11 0.13 0.14
0.37 0.42 0.49 0.71 0.59 0.29 0.13 0.04 0.03 0.02 0.01 0.00 0.00 0.00 0.00 0.00 0.00 0.00 0.00 0.00 0.00 0.00 0.00 0.00 0.01 0.02 0.01 0.02 0.03 0.04 0.03 0.02 0.02 0.02 0.02 0.02 0.02 0.01 0.02 0.02 0.04 0.06 0.08 0.09 0.11 0.13 0.13 0.15 0.18
0.48 0.59 0.74 0.74 0.47 0.28 0.15 0.08 0.06 0.04 0.02 0.01 0.01 0.01 0.01 0.01 0.00 0.00 0.01 0.00 0.00 0.00 0.00 0.00 0.01 0.02 0.02 0.02 0.02 0.03 0.04 0.03 0.02 0.02 0.02 0.02 0.02 0.02 0.02 0.03 0.05 0.09 0.10 0.11 0.13 0.14 0.15 0.19 0.19
0.43 0.53 0.64 0.72 0.49 0.20 0.14 0.10 0.08 0.05 0.03 0.02 0.01 0.01 0.01 0.01 0.01 0.01 0.00 0.01 0.01 0.01 0.00 0.00 0.01 0.01 0.01 0.01 0.02 0.01 0.02 0.02 0.03 0.02 0.02 0.02 0.02 0.02 0.02 0.03 0.06 0.11 0.13 0.14 0.17 0.18 0.18 0.21 0.23

GEFSSGP_prec_meanprecacc_144.txt.gz
Total_Precipitation_Accumulation
0.01 0.00 0.00 0.00 0.00 0.00 0.00 0.00 0.00 0.00 0.00 0.00 0.00 0.00 0.00 0.00 0.00 0.01 0.01 0.01 0.02 0.04 0.08 0.13 0.15 0.16 0.17 0.17 0.15 0.13 0.10 0.10 0.11 0.10 0.10 0.11 0.12 0.12 0.13 0.14 0.16 0.17 0.17 0.18 0.19 0.20 0.19 0.14 0.14
0.01 0.00 0.00 0.01 0.00 0.00 0.00 0.00 0.00 0.00 0.00 0.00 0.00 0.00 0.00 0.00 0.00 0.00 0.00 0.01 0.01 0.02 0.05 0.09 0.15 0.17 0.18 0.16 0.14 0.12 0.10 0.09 0.09 0.09 0.09 0.09 0.09 0.10 0.11 0.12 0.12 0.13 0.15 0.16 0.16 0.17 0.18 0.14 0.14
0.02 0.01 0.01 0.01 0.00 0.00 0.00 0.00 0.00 0.00 0.00 0.00 0.00 0.00 0.00 0.00 0.00 0.01 0.01 0.01 0.01 0.01 0.03 0.08 0.15 0.17 0.18 0.18 0.15 0.12 0.10 0.10 0.10 0.09 0.08 0.08 0.09 0.09 0.09 0.08 0.07 0.08 0.09 0.11 0.12 0.16 0.17 0.16 0.15
0.03 0.03 0.02 0.01 0.00 0.00 0.00 0.00 0.00 0.00 0.00 0.00 0.00 0.00 0.00 0.00 0.00 0.01 0.01 0.01 0.01 0.02 0.03 0.08 0.14 0.18 0.19 0.19 0.16 0.12 0.11 0.10 0.09 0.08 0.08 0.08 0.09 0.09 0.08 0.07 0.06 0.05 0.06 0.08 0.11 0.16 0.20 0.16 0.14
0.04 0.04 0.03 0.01 0.00 0.00 0.00 0.00 0.00 0.00 0.00 0.00 0.00 0.00 0.00 0.00 0.00 0.01 0.01 0.02 0.03 0.03 0.05 0.08 0.13 0.18 0.19 0.19 0.16 0.12 0.11 0.11 0.09 0.08 0.08 0.08 0.09 0.08 0.07 0.07 0.07 0.05 0.05 0.06 0.08 0.12 0.21 0.20 0.19
0.07 0.06 0.03 0.01 0.00 0.00 0.00 0.00 0.00 0.00 0.00 0.00 0.00 0.00 0.00 0.00 0.00 0.00 0.00 0.00 0.00 0.01 0.02 0.05 0.12 0.15 0.16 0.18 0.16 0.12 0.11 0.11 0.09 0.08 0.08 0.08 0.08 0.08 0.09 0.11 0.10 0.08 0.06 0.07 0.07 0.08 0.13 0.18 0.21
0.08 0.07 0.03 0.00 0.00 0.00 0.00 0.00 0.00 0.00 0.00 0.00 0.00 0.00 0.00 0.00 0.00 0.00 0.00 0.00 0.00 0.00 0.01 0.04 0.09 0.12 0.14 0.17 0.16 0.13 0.11 0.10 0.09 0.08 0.07 0.07 0.07 0.07 0.10 0.09 0.08 0.07 0.07 0.08 0.06 0.05 0.07 0.12 0.16
0.09 0.10 0.04 0.01 0.00 0.00 0.00 0.00 0.00 0.00 0.00 0.00 0.00 0.00 0.00 0.00 0.00 0.00 0.00 0.00 0.01 0.01 0.02 0.04 0.07 0.08 0.10 0.13 0.15 0.14 0.12 0.10 0.10 0.09 0.07 0.07 0.07 0.09 0.10 0.07 0.07 0.07 0.08 0.07 0.07 0.06 0.05 0.04 0.06
0.13 0.16 0.06 0.01 0.00 0.00 0.00 0.00 0.00 0.00 0.00 0.00 0.00 0.00 0.00 0.00 0.00 0.00 0.01 0.01 0.02 0.02 0.03 0.04 0.05 0.07 0.07 0.09 0.11 0.14 0.13 0.11 0.11 0.11 0.10 0.07 0.07 0.07 0.06 0.04 0.06 0.06 0.06 0.06 0.06 0.07 0.07 0.05 0.02
0.16 0.11 0.03 0.01 0.00 0.01 0.00 0.00 0.00 0.00 0.00 0.00 0.00 0.00 0.00 0.00 0.01 0.01 0.01 0.01 0.02 0.02 0.03 0.03 0.04 0.05 0.07 0.07 0.09 0.11 0.11 0.10 0.08 0.07 0.06 0.06 0.07 0.07 0.07 0.07 0.09 0.07 0.06 0.07 0.09 0.08 0.07 0.05 0.03
0.12 0.06 0.01 0.01 0.01 0.01 0.01 0.01 0.01 0.00 0.00 0.00 0.00 0.00 0.00 0.00 0.01 0.01 0.01 0.01 0.01 0.01 0.02 0.03 0.04 0.04 0.06 0.07 0.07 0.08 0.09 0.09 0.06 0.04 0.03 0.03 0.04 0.04 0.05 0.05 0.07 0.07 0.08 0.11 0.11 0.11 0.11 0.11 0.12
0.08 0.04 0.02 0.02 0.02 0.02 0.02 0.01 0.01 0.01 0.00 0.00 0.00 0.00 0.00 0.02 0.02 0.02 0.02 0.02 0.02 0.02 0.02 0.03 0.04 0.04 0.05 0.05 0.06 0.06 0.07 0.07 0.06 0.04 0.03 0.02 0.02 0.02 0.02 0.03 0.03 0.05 0.07 0.10 0.14 0.15 0.16 0.14 0.13
0.08 0.03 0.02 0.02 0.03 0.03 0.03 0.02 0.01 0.01 0.00 0.00 0.00 0.00 0.00 0.02 0.03 0.04 0.04 0.05 0.04 0.03 0.03 0.03 0.04 0.05 0.05 0.05 0.06 0.05 0.05 0.06 0.05 0.04 0.03 0.02 0.02 0.02 0.01 0.01 0.01 0.02 0.02 0.02 0.04 0.05 0.08 0.09 0.09
0.09 0.06 0.04 0.03 0.04 0.04 0.05 0.03 0.01 0.00 0.00 0.00 0.00 0.01 0.01 0.02 0.04 0.06 0.06 0.06 0.05 0.05 0.04 0.04 0.04 0.05 0.06 0.05 0.05 0.05 0.05 0.05 0.05 0.04 0.03 0.02 0.02 0.02 0.02 0.02 0.01 0.01 0.01 0.01 0.01 0.01 0.02 0.03 0.03
0.12 0.13 0.09 0.05 0.03 0.04 0.08 0.06 0.01 0.00 0.00 0.00 0.00 0.02 0.01 0.01 0.03 0.06 0.07 0.07 0.05 0.05 0.05 0.05 0.05 0.06 0.06 0.05 0.04 0.05 0.05 0.05 0.05 0.04 0.03 0.03 0.02 0.02 0.02 0.02 0.02 0.02 0.01 0.01 0.01 0.01 0.01 0.01 0.01
0.20 0.24 0.18 0.06 0.03 0.04 0.14 0.11 0.01 0.00 0.00 0.00 0.01 0.01 0.03 0.02 0.02 0.04 0.08 0.09 0.08 0.07 0.07 0.07 0.07 0.06 0.05 0.05 0.05 0.05 0.05 0.05 0.05 0.04 0.03 0.03 0.02 0.02 0.02 0.03 0.03 0.02 0.02 0.02 0.02 0.02 0.01 0.02 0.01
0.31 0.27 0.16 0.07 0.04 0.06 0.13 0.09 0.01 0.00 0.00 0.00 0.01 0.01 0.03 0.03 0.02 0.03 0.06 0.09 0.11 0.10 0.09 0.09 0.09 0.07 0.05 0.05 0.05 0.05 0.05 0.05 0.04 0.03 0.03 0.03 0.02 0.02 0.02 0.03 0.03 0.03 0.02 0.02 0.02 0.01 0.01 0.02 0.01
0.30 0.19 0.11 0.07 0.06 0.09 0.11 0.07 0.01 0.01 0.01 0.01 0.01 0.01 0.02 0.04 0.03 0.03 0.05 0.07 0.11 0.13 0.12 0.11 0.10 0.10 0.08 0.07 0.07 0.07 0.06 0.05 0.05 0.04 0.03 0.02 0.02 0.02 0.02 0.03 0.03 0.03 0.03 0.02 0.02 0.02 0.02 0.02 0.02
0.18 0.21 0.17 0.09 0.07 0.13 0.13 0.08 0.03 0.01 0.02 0.02 0.01 0.01 0.01 0.02 0.03 0.03 0.05 0.06 0.10 0.14 0.14 0.13 0.12 0.11 0.12 0.10 0.08 0.07 0.06 0.05 0.05 0.04 0.02 0.02 0.01 0.01 0.02 0.02 0.02 0.02 0.03 0.03 0.02 0.02 0.02 0.02 0.02
0.26 0.27 0.20 0.14 0.11 0.19 0.17 0.08 0.03 0.02 0.02 0.02 0.01 0.01 0.01 0.01 0.01 0.02 0.04 0.05 0.07 0.11 0.13 0.13 0.13 0.11 0.11 0.08 0.05 0.04 0.04 0.04 0.04 0.04 0.03 0.02 0.02 0.02 0.02 0.02 0.03 0.03 0.03 0.03 0.03 0.03 0.03 0.03 0.03
0.34 0.27 0.17 0.15 0.14 0.20 0.22 0.14 0.02 0.01 0.01 0.01 0.01 0.01 0.01 0.00 0.01 0.01 0.03 0.05 0.05 0.06 0.09 0.11 0.11 0.11 0.12 0.10 0.07 0.06 0.06 0.06 0.06 0.05 0.04 0.02 0.01 0.01 0.01 0.01 0.02 0.02 0.02 0.02 0.02 0.02 0.04 0.05 0.03
0.36 0.18 0.17 0.20 0.31 0.33 0.26 0.25 0.04 0.00 0.00 0.00 0.00 0.00 0.00 0.00 0.00 0.01 0.01 0.03 0.04 0.04 0.06 0.09 0.11 0.10 0.11 0.14 0.10 0.06 0.05 0.04 0.03 0.03 0.02 0.01 0.01 0.01 0.01 0.01 0.02 0.02 0.02 0.02 0.02 0.02 0.04 0.07 0.09
0.29 0.18 0.22 0.29 0.41 0.46 0.32 0.31 0.09 0.01 0.01 0.00 0.00 0.00 0.00 0.00 0.00 0.00 0.00 0.02 0.03 0.03 0.04 0.07 0.10 0.13 0.11 0.13 0.12 0.07 0.05 0.03 0.02 0.02 0.02 0.02 0.02 0.01 0.02 0.02 0.02 0.02 0.02 0.02 0.02 0.03 0.04 0.08 0.13
0.28 0.35 0.39 0.45 0.68 0.84 0.31 0.25 0.11 0.02 0.01 0.00 0.00 0.00 0.00 0.00 0.00 0.00 0.00 0.01 0.01 0.02 0.04 0.06 0.08 0.11 0.12 0.11 0.12 0.10 0.06 0.05 0.04 0.03 0.02 0.02 0.02 0.02 0.02 0.02 0.02 0.02 0.02 0.03 0.03 0.04 0.05 0.07 0.10
0.48 0.73 1.06 1.10 1.13 0.70 0.12 0.12 0.08 0.02 0.01 0.00 0.00 0.00 0.00 0.00 0.00 0.00 0.00 0.00 0.01 0.02 0.03 0.06 0.07 0.08 0.10 0.11 0.10 0.08 0.08 0.07 0.06 0.05 0.03 0.03 0.03 0.03 0.02 0.02 0.02 0.02 0.02 0.03 0.04 0.06 0.07 0.07 0.10
0.50 0.65 0.84 0.77 0.51 0.18 0.05 0.07 0.03 0.01 0.01 0.01 0.00 0.00 0.00 0.00 0.00 0.00 0.00 0.00 0.00 0.01 0.02 0.04 0.05 0.06 0.08 0.10 0.09 0.08 0.09 0.09 0.08 0.06 0.05 0.05 0.05 0.03 0.02 0.02 0.03 0.03 0.04 0.05 0.07 0.08 0.09 0.10 0.12
0.47 0.49 0.40 0.49 0.38 0.23 0.13 0.06 0.03 0.01 0.01 0.01 0.01 0.00 0.00 0.00 0.01 0.00 0.00 0.00 0.00 0.01 0.01 0.02 0.03 0.05 0.06 0.07 0.09 0.09 0.09 0.09 0.08 0.07 0.06 0.06 0.04 0.03 0.02 0.02 0.03 0.04 0.06 0.08 0.10 0.12 0.12 0.13 0.15
0.42 0.48 0.58 0.80 0.65 0.33 0.15 0.08 0.08 0.05 0.03 0.01 0.01 0.00 0.00 0.00 0.01 0.01 0.00 0.00 0.00 0.00 0.01 0.01 0.02 0.04 0.05 0.06 0.08 0.09 0.09 0.09 0.08 0.08 0.07 0.05 0.04 0.03 0.02 0.03 0.04 0.06 0.08 0.09 0.12 0.14 0.13 0.16 0.18
0.53 0.66 0.82 0.81 0.54 0.34 0.19 0.13 0.14 0.10 0.05 0.03 0.02 0.01 0.01 0.01 0.01 0.01 0.01 0.01 0.00 0.00 0.00 0.01 0.01 0.03 0.04 0.05 0.06 0.07 0.08 0.11 0.11 0.09 0.06 0.05 0.04 0.04 0.03 0.04 0.06 0.09 0.11 0.11 0.14 0.14 0.16 0.19 0.19
0.46 0.59 0.71 0.80 0.55 0.25 0.18 0.15 0.14 0.10 0.07 0.05 0.03 0.02 0.01 0.01 0.01 0.01 0.01 0.01 0.01 0.01 0.00 0.00 0.01 0.02 0.03 0.04 0.06 0.06 0.05 0.08 0.12 0.13 0.09 0.06 0.05 0.04 0.04 0.04 0.07 0.12 0.14 0.14 0.17 0.18 0.18 0.22 0.24

GEFSSGP_prec_meanprecacc_150.txt.gz
Total_Precipitation_Accumulation
0.03 0.02 0.01 0.01 0.00 0.00 0.00 0.00 0.00 0.00 0.00 0.00 0.00 0.00 0.00 0.00 0.00 0.01 0.01 0.01 0.02 0.04 0.08 0.14 0.17 0.18 0.19 0.18 0.16 0.14 0.12 0.12 0.12 0.12 0.11 0.12 0.13 0.13 0.14 0.16 0.17 0.18 0.19 0.20 0.20 0.21 0.19 0.14 0.15
0.02 0.01 0.02 0.01 0.01 0.00 0.00 0.00 0.00 0.00 0.00 0.00 0.00 0.00 0.00 0.00 0.00 0.00 0.00 0.01 0.01 0.02 0.05 0.10 0.16 0.18 0.19 0.18 0.16 0.13 0.12 0.11 0.10 0.10 0.10 0.11 0.11 0.11 0.12 0.13 0.13 0.14 0.16 0.18 0.17 0.17 0.18 0.15 0.14
0.04 0.04 0.03 0.02 0.01 0.00 0.00 0.00 0.00 0.00 0.00 0.00 0.00 0.00 0.00 0.00 0.00 0.01 0.01 0.01 0.01 0.01 0.03 0.09 0.16 0.19 0.20 0.19 0.17 0.14 0.12 0.12 0.11 0.10 0.10 0.10 0.11 0.11 0.11 0.10 0.09 0.09 0.10 0.11 0.12 0.16 0.18 0.17 0.15
0.06 0.07 0.06 0.02 0.00 0.00 0.00 0.00 0.00 0.00 0.00 0.00 0.00 0.00 0.00 0.00 0.00 0.01 0.01 0.01 0.01 0.02 0.03 0.09 0.15 0.20 0.21 0.21 0.18 0.15 0.13 0.12 0.11 0.10 0.10 0.11 0.12 0.12 0.10 0.08 0.07 0.06 0.06 0.08 0.11 0.17 0.21 0.17 0.15
0.09 0.10 0.07 0.03 0.00 0.00 0.00 0.00 0.00 0.00 0.00 0.00 0.00 0.00 0.00 0.00 0.00 0.01 0.01 0.02 0.03 0.03 0.05 0.09 0.15 0.20 0.21 0.21 0.18 0.15 0.13 0.13 0.11 0.10 0.10 0.11 0.12 0.10 0.09 0.08 0.07 0.06 0.05 0.06 0.08 0.13 0.21 0.20 0.19
0.12 0.12 0.07 0.02 0.00 0.00 0.00 0.00 0.00 0.00 0.00 0.00 0.00 0.00 0.00 0.00 0.00 0.00 0.00 0.00 0.01 0.01 0.02 0.06 0.14 0.18 0.20 0.22 0.19 0.16 0.15 0.14 0.12 0.10 0.10 0.11 0.11 0.10 0.11 0.12 0.10 0.08 0.07 0.07 0.07 0.08 0.14 0.18 0.21
0.13 0.12 0.05 0.02 0.00 0.00 0.00 0.00 0.00 0.00 0.00 0.00 0.00 0.00 0.00 0.00 0.00 0.00 0.00 0.00 0.01 0.01 0.03 0.06 0.12 0.16 0.19 0.22 0.20 0.17 0.16 0.15 0.12 0.10 0.10 0.10 0.10 0.10 0.11 0.10 0.09 0.08 0.08 0.08 0.07 0.06 0.07 0.12 0.16
0.16 0.15 0.07 0.02 0.01 0.01 0.00 0.00 0.00 0.00 0.00 0.00 0.00 0.00 0.00 0.00 0.00 0.00 0.00 0.01 0.02 0.02 0.04 0.06 0.11 0.13 0.16 0.19 0.21 0.19 0.17 0.15 0.15 0.12 0.09 0.09 0.09 0.12 0.12 0.08 0.08 0.08 0.08 0.08 0.07 0.07 0.05 0.05 0.06
0.21 0.22 0.08 0.02 0.01 0.01 0.01 0.01 0.00 0.01 0.01 0.00 0.00 0.00 0.00 0.00 0.00 0.01 0.02 0.03 0.03 0.04 0.05 0.07 0.11 0.13 0.14 0.16 0.18 0.21 0.21 0.18 0.16 0.16 0.12 0.10 0.10 0.11 0.09 0.06 0.07 0.07 0.06 0.06 0.07 0.07 0.07 0.05 0.02
0.25 0.18 0.05 0.01 0.01 0.02 0.02 0.02 0.02 0.02 0.01 0.00 0.00 0.00 0.00 0.00 0.01 0.01 0.02 0.02 0.03 0.04 0.05 0.07 0.11 0.13 0.16 0.16 0.17 0.19 0.19 0.19 0.15 0.12 0.11 0.10 0.10 0.10 0.11 0.10 0.11 0.08 0.06 0.08 0.09 0.09 0.07 0.05 0.03
0.19 0.12 0.04 0.02 0.02 0.03 0.04 0.04 0.03 0.03 0.01 0.01 0.01 0.00 0.00 0.01 0.01 0.02 0.02 0.02 0.02 0.03 0.05 0.08 0.11 0.14 0.17 0.17 0.16 0.16 0.17 0.17 0.15 0.10 0.07 0.07 0.08 0.07 0.08 0.08 0.10 0.09 0.09 0.11 0.12 0.12 0.11 0.11 0.12
0.14 0.07 0.05 0.04 0.04 0.05 0.05 0.05 0.04 0.03 0.01 0.01 0.01 0.01 0.01 0.02 0.02 0.02 0.03 0.03 0.04 0.06 0.07 0.09 0.12 0.14 0.16 0.16 0.15 0.14 0.14 0.15 0.14 0.11 0.08 0.07 0.06 0.04 0.03 0.04 0.05 0.06 0.07 0.10 0.14 0.15 0.16 0.14 0.13
0.12 0.07 0.05 0.05 0.06 0.06 0.07 0.06 0.04 0.02 0.01 0.01 0.01 0.02 0.02 0.02 0.04 0.04 0.05 0.06 0.06 0.07 0.09 0.11 0.14 0.16 0.16 0.17 0.16 0.14 0.13 0.12 0.11 0.12 0.10 0.07 0.05 0.03 0.02 0.02 0.03 0.03 0.02 0.03 0.04 0.05 0.08 0.09 0.09
0.12 0.09 0.07 0.06 0.06 0.08 0.10 0.07 0.05 0.02 0.01 0.01 0.01 0.02 0.02 0.03 0.05 0.07 0.07 0.08 0.08 0.09 0.10 0.13 0.15 0.17 0.19 0.17 0.14 0.13 0.12 0.11 0.11 0.11 0.10 0.09 0.07 0.04 0.03 0.03 0.02 0.02 0.02 0.01 0.01 0.01 0.02 0.03 0.03
0.15 0.16 0.12 0.08 0.07 0.07 0.13 0.13 0.04 0.02 0.01 0.01 0.01 0.02 0.03 0.02 0.04 0.07 0.08 0.09 0.08 0.09 0.12 0.15 0.16 0.19 0.21 0.19 0.16 0.14 0.12 0.12 0.11 0.09 0.09 0.09 0.08 0.06 0.05 0.04 0.03 0.02 0.02 0.01 0.01 0.01 0.01 0.01 0.01
0.24 0.30 0.22 0.10 0.07 0.07 0.18 0.16 0.03 0.02 0.02 0.02 0.01 0.02 0.04 0.03 0.03 0.05 0.09 0.12 0.11 0.12 0.13 0.16 0.18 0.20 0.21 0.21 0.20 0.15 0.12 0.11 0.11 0.09 0.08 0.09 0.09 0.07 0.05 0.05 0.04 0.03 0.02 0.02 0.02 0.02 0.01 0.02 0.01
0.38 0.33 0.21 0.10 0.09 0.11 0.18 0.12 0.02 0.02 0.03 0.02 0.02 0.02 0.04 0.05 0.04 0.04 0.08 0.11 0.14 0.15 0.16 0.18 0.20 0.19 0.21 0.22 0.23 0.18 0.12 0.10 0.10 0.09 0.08 0.08 0.09 0.09 0.08 0.06 0.05 0.03 0.02 0.02 0.02 0.01 0.01 0.02 0.01
0.37 0.24 0.15 0.10 0.10 0.14 0.16 0.10 0.03 0.03 0.03 0.03 0.02 0.02 0.03 0.05 0.04 0.04 0.06 0.09 0.14 0.18 0.21 0.22 0.22 0.22 0.25 0.27 0.28 0.23 0.17 0.13 0.10 0.09 0.07 0.07 0.08 0.09 0.09 0.08 0.05 0.04 0.03 0.02 0.02 0.02 0.02 0.02 0.02
0.23 0.26 0.21 0.12 0.10 0.16 0.16 0.10 0.04 0.03 0.03 0.03 0.02 0.02 0.02 0.03 0.03 0.04 0.07 0.09 0.13 0.19 0.23 0.25 0.24 0.26 0.32 0.32 0.28 0.24 0.18 0.13 0.10 0.08 0.07 0.06 0.07 0.08 0.08 0.08 0.06 0.04 0.03 0.03 0.02 0.02 0.02 0.02 0.02
0.31 0.33 0.25 0.17 0.13 0.22 0.20 0.10 0.04 0.03 0.03 0.03 0.02 0.02 0.02 0.01 0.02 0.03 0.05 0.08 0.11 0.15 0.20 0.23 0.25 0.26 0.29 0.30 0.24 0.19 0.15 0.12 0.09 0.07 0.07 0.06 0.07 0.08 0.08 0.07 0.06 0.04 0.04 0.03 0.03 0.03 0.03 0.03 0.03
0.38 0.31 0.21 0.19 0.18 0.23 0.26 0.17 0.04 0.02 0.01 0.01 0.02 0.02 0.02 0.01 0.01 0.02 0.04 0.07 0.09 0.12 0.16 0.18 0.22 0.25 0.28 0.33 0.31 0.26 0.24 0.20 0.14 0.09 0.09 0.07 0.06 0.07 0.08 0.07 0.05 0.03 0.03 0.02 0.02 0.02 0.04 0.05 0.03
0.40 0.21 0.19 0.22 0.35 0.38 0.30 0.30 0.05 0.02 0.01 0.01 0.01 0.02 0.02 0.02 0.01 0.01 0.02 0.06 0.07 0.09 0.13 0.17 0.21 0.25 0.26 0.35 0.37 0.27 0.22 0.20 0.13 0.07 0.06 0.07 0.08 0.07 0.06 0.07 0.05 0.04 0.02 0.02 0.02 0.02 0.04 0.07 0.09
0.31 0.20 0.24 0.31 0.43 0.49 0.35 0.34 0.10 0.02 0.02 0.01 0.01 0.01 0.01 0.01 0.01 0.00 0.01 0.03 0.05 0.08 0.12 0.16 0.20 0.28 0.27 0.31 0.37 0.30 0.21 0.17 0.13 0.09 0.06 0.07 0.09 0.09 0.07 0.06 0.06 0.04 0.03 0.02 0.02 0.03 0.04 0.08 0.13
0.30 0.37 0.41 0.47 0.71 0.87 0.32 0.26 0.14 0.06 0.06 0.02 0.01 0.01 0.01 0.01 0.01 0.00 0.00 0.02 0.05 0.07 0.12 0.16 0.19 0.26 0.28 0.27 0.31 0.33 0.25 0.19 0.16 0.12 0.07 0.07 0.09 0.10 0.09 0.06 0.06 0.04 0.03 0.03 0.03 0.04 0.05 0.07 0.10
0.50 0.77 1.11 1.13 1.16 0.72 0.13 0.14 0.13 0.08 0.06 0.05 0.03 0.02 0.02 0.01 0.01 0.01 0.01 0.01 0.03 0.06 0.10 0.15 0.18 0.21 0.24 0.24 0.26 0.26 0.28 0.24 0.18 0.14 0.09 0.07 0.08 0.09 0.08 0.07 0.05 0.04 0.04 0.04 0.05 0.06 0.07 0.07 0.10
0.53 0.70 0.90 0.82 0.53 0.19 0.06 0.10 0.09 0.06 0.04 0.04 0.03 0.02 0.01 0.01 0.01 0.01 0.01 0.02 0.02 0.04 0.08 0.12 0.15 0.17 0.19 0.20 0.21 0.20 0.25 0.30 0.23 0.17 0.13 0.10 0.09 0.07 0.06 0.06 0.05 0.05 0.05 0.05 0.07 0.08 0.09 0.11 0.12
0.50 0.53 0.45 0.55 0.41 0.25 0.15 0.09 0.07 0.03 0.03 0.03 0.02 0.02 0.02 0.02 0.01 0.01 0.01 0.02 0.02 0.03 0.06 0.10 0.12 0.14 0.15 0.17 0.19 0.19 0.19 0.25 0.27 0.21 0.15 0.13 0.10 0.08 0.07 0.07 0.07 0.06 0.07 0.09 0.11 0.12 0.12 0.13 0.15
0.43 0.50 0.62 0.86 0.70 0.36 0.17 0.11 0.13 0.08 0.06 0.04 0.04 0.03 0.02 0.02 0.02 0.02 0.01 0.02 0.02 0.02 0.04 0.08 0.12 0.12 0.11 0.13 0.18 0.19 0.17 0.18 0.23 0.25 0.19 0.13 0.11 0.10 0.10 0.10 0.09 0.10 0.10 0.10 0.12 0.14 0.13 0.16 0.18
0.54 0.68 0.85 0.85 0.57 0.38 0.22 0.18 0.20 0.14 0.11 0.09 0.07 0.05 0.03 0.03 0.03 0.03 0.03 0.03 0.03 0.03 0.03 0.07 0.12 0.11 0.10 0.11 0.13 0.17 0.17 0.18 0.22 0.24 0.20 0.14 0.10 0.09 0.10 0.11 0.12 0.15 0.14 0.13 0.15 0.15 0.16 0.19 0.20
0.47 0.60 0.74 0.85 0.58 0.28 0.22 0.19 0.17 0.13 0.11 0.10 0.08 0.05 0.03 0.02 0.02 0.02 0.02 0.03 0.04 0.04 0.04 0.07 0.11 0.10 0.08 0.10 0.12 0.13 0.15 0.16 0.21 0.23 0.22 0.18 0.13 0.09 0.08 0.09 0.13 0.17 0.19 0.18 0.19 0.19 0.19 0.22 0.24

GEFSSGP_prec_meanprecacc_156.txt.gz
Total_Precipitation_Accumulation
0.04 0.03 0.02 0.03 0.01 0.01 0.00 0.00 0.00 0.00 0.00 0.00 0.00 0.00 0.00 0.00 0.00 0.01 0.01 0.01 0.02 0.04 0.08 0.14 0.17 0.19 0.20 0.20 0.18 0.16 0.13 0.13 0.13 0.13 0.13 0.14 0.14 0.14 0.15 0.17 0.18 0.19 0.20 0.22 0.22 0.22 0.21 0.15 0.15
0.04 0.03 0.03 0.03 0.01 0.00 0.00 0.00 0.00 0.00 0.00 0.00 0.00 0.00 0.00 0.00 0.00 0.00 0.00 0.01 0.01 0.02 0.05 0.10 0.17 0.19 0.21 0.20 0.19 0.16 0.13 0.12 0.12 0.12 0.12 0.12 0.12 0.12 0.14 0.15 0.15 0.16 0.18 0.19 0.19 0.19 0.19 0.15 0.15
0.05 0.06 0.06 0.04 0.01 0.00 0.00 0.00 0.00 0.00 0.00 0.00 0.00 0.00 0.00 0.00 0.00 0.01 0.01 0.01 0.01 0.01 0.03 0.09 0.17 0.20 0.22 0.22 0.20 0.17 0.15 0.14 0.13 0.12 0.12 0.12 0.12 0.13 0.12 0.11 0.11 0.11 0.11 0.12 0.14 0.17 0.18 0.17 0.15
0.08 0.12 0.09 0.04 0.01 0.00 0.00 0.00 0.00 0.00 0.00 0.00 0.00 0.00 0.00 0.00 0.00 0.01 0.01 0.01 0.01 0.02 0.04 0.10 0.17 0.21 0.23 0.24 0.22 0.19 0.16 0.16 0.14 0.13 0.12 0.13 0.14 0.14 0.12 0.10 0.09 0.07 0.07 0.09 0.12 0.17 0.21 0.17 0.15
0.12 0.15 0.11 0.04 0.00 0.00 0.00 0.00 0.00 0.00 0.00 0.00 0.00 0.00 0.00 0.00 0.00 0.01 0.01 0.02 0.03 0.03 0.06 0.10 0.16 0.22 0.24 0.25 0.23 0.20 0.18 0.18 0.16 0.14 0.14 0.15 0.15 0.13 0.12 0.10 0.09 0.07 0.06 0.07 0.09 0.13 0.21 0.20 0.19
0.15 0.16 0.10 0.03 0.00 0.00 0.00 0.00 0.00 0.00 0.00 0.00 0.00 0.00 0.00 0.00 0.00 0.00 0.00 0.00 0.01 0.01 0.03 0.07 0.16 0.21 0.23 0.27 0.26 0.22 0.21 0.21 0.18 0.16 0.16 0.16 0.15 0.14 0.13 0.13 0.11 0.09 0.07 0.08 0.08 0.09 0.14 0.18 0.21
0.16 0.15 0.07 0.02 0.01 0.00 0.00 0.00 0.00 0.00 0.00 0.00 0.00 0.00 0.00 0.00 0.00 0.00 0.00 0.00 0.01 0.01 0.03 0.07 0.15 0.20 0.24 0.28 0.29 0.27 0.26 0.24 0.21 0.19 0.18 0.17 0.15 0.14 0.14 0.12 0.10 0.08 0.08 0.09 0.07 0.06 0.08 0.12 0.16
0.18 0.18 0.09 0.03 0.02 0.01 0.00 0.00 0.00 0.01 0.00 0.00 0.00 0.00 0.00 0.00 0.00 0.00 0.01 0.01 0.02 0.03 0.05 0.08 0.14 0.19 0.23 0.28 0.31 0.31 0.30 0.27 0.27 0.24 0.18 0.16 0.16 0.17 0.17 0.11 0.09 0.08 0.09 0.08 0.08 0.08 0.06 0.05 0.06
0.23 0.26 0.10 0.03 0.02 0.01 0.01 0.01 0.01 0.01 0.01 0.00 0.00 0.00 0.00 0.00 0.00 0.01 0.02 0.03 0.05 0.06 0.08 0.11 0.16 0.20 0.24 0.27 0.28 0.33 0.36 0.35 0.34 0.31 0.24 0.18 0.17 0.16 0.14 0.10 0.09 0.09 0.07 0.07 0.08 0.08 0.07 0.05 0.03
0.28 0.22 0.07 0.02 0.02 0.02 0.02 0.03 0.03 0.03 0.02 0.01 0.01 0.01 0.01 0.01 0.01 0.02 0.02 0.03 0.05 0.06 0.09 0.12 0.16 0.21 0.28 0.30 0.32 0.35 0.37 0.38 0.34 0.26 0.22 0.20 0.17 0.14 0.13 0.15 0.14 0.11 0.08 0.09 0.11 0.10 0.08 0.05 0.03
0.21 0.14 0.05 0.03 0.03 0.04 0.04 0.04 0.04 0.05 0.04 0.02 0.02 0.01 0.01 0.01 0.02 0.02 0.02 0.03 0.04 0.05 0.09 0.13 0.19 0.24 0.30 0.33 0.33 0.34 0.35 0.35 0.32 0.23 0.17 0.15 0.15 0.12 0.13 0.12 0.14 0.13 0.12 0.13 0.13 0.12 0.11 0.11 0.12
0.16 0.10 0.07 0.05 0.04 0.06 0.06 0.06 0.05 0.05 0.04 0.04 0.04 0.02 0.02 0.03 0.03 0.03 0.03 0.04 0.06 0.09 0.12 0.16 0.22 0.26 0.30 0.34 0.35 0.32 0.32 0.30 0.28 0.25 0.20 0.16 0.12 0.08 0.07 0.07 0.08 0.08 0.09 0.12 0.15 0.16 0.16 0.14 0.13
0.14 0.09 0.07 0.07 0.07 0.08 0.08 0.08 0.06 0.04 0.03 0.04 0.05 0.04 0.03 0.05 0.05 0.05 0.06 0.08 0.08 0.10 0.14 0.19 0.24 0.28 0.31 0.36 0.39 0.36 0.32 0.27 0.24 0.24 0.25 0.19 0.12 0.07 0.07 0.05 0.04 0.04 0.03 0.04 0.04 0.06 0.08 0.09 0.09
0.14 0.12 0.09 0.08 0.09 0.11 0.13 0.10 0.09 0.04 0.03 0.06 0.06 0.06 0.04 0.05 0.08 0.09 0.10 0.10 0.10 0.12 0.15 0.20 0.26 0.30 0.35 0.36 0.37 0.38 0.34 0.29 0.28 0.25 0.24 0.22 0.18 0.11 0.08 0.05 0.04 0.03 0.02 0.02 0.02 0.02 0.03 0.03 0.03
0.17 0.19 0.15 0.10 0.09 0.10 0.18 0.18 0.08 0.04 0.05 0.06 0.06 0.07 0.05 0.04 0.07 0.09 0.12 0.11 0.11 0.14 0.17 0.22 0.27 0.34 0.38 0.38 0.39 0.39 0.37 0.33 0.31 0.26 0.22 0.21 0.20 0.18 0.12 0.08 0.05 0.04 0.03 0.02 0.02 0.02 0.01 0.01 0.01
0.26 0.34 0.26 0.13 0.10 0.11 0.23 0.22 0.06 0.04 0.07 0.07 0.07 0.08 0.07 0.05 0.05 0.07 0.12 0.15 0.14 0.17 0.19 0.24 0.29 0.34 0.41 0.42 0.42 0.41 0.40 0.37 0.33 0.31 0.24 0.22 0.21 0.19 0.19 0.14 0.10 0.06 0.04 0.03 0.02 0.02 0.02 0.02 0.01
0.40 0.37 0.24 0.14 0.12 0.16 0.24 0.17 0.04 0.05 0.07 0.07 0.07 0.07 0.07 0.07 0.06 0.06 0.10 0.14 0.18 0.19 0.22 0.26 0.32 0.32 0.38 0.48 0.48 0.45 0.41 0.40 0.37 0.36 0.31 0.24 0.23 0.21 0.20 0.20 0.15 0.09 0.05 0.03 0.02 0.02 0.02 0.02 0.02
0.39 0.27 0.19 0.14 0.13 0.17 0.20 0.13 0.06 0.07 0.08 0.07 0.05 0.05 0.05 0.07 0.06 0.06 0.10 0.13 0.18 0.23 0.27 0.30 0.34 0.36 0.40 0.54 0.61 0.53 0.50 0.44 0.40 0.37 0.33 0.28 0.24 0.21 0.19 0.21 0.20 0.14 0.09 0.05 0.03 0.03 0.02 0.02 0.02
0.25 0.29 0.25 0.16 0.13 0.20 0.20 0.12 0.06 0.06 0.06 0.06 0.05 0.04 0.04 0.04 0.04 0.06 0.10 0.13 0.18 0.24 0.29 0.33 0.36 0.39 0.47 0.55 0.65 0.59 0.51 0.48 0.41 0.34 0.32 0.28 0.25 0.21 0.18 0.16 0.16 0.17 0.14 0.09 0.05 0.04 0.03 0.02 0.02
0.32 0.35 0.27 0.20 0.16 0.25 0.22 0.12 0.05 0.05 0.06 0.05 0.04 0.04 0.03 0.03 0.03 0.05 0.09 0.13 0.16 0.21 0.26 0.30 0.36 0.38 0.43 0.49 0.54 0.58 0.48 0.46 0.43 0.35 0.32 0.29 0.26 0.22 0.19 0.15 0.13 0.12 0.13 0.12 0.08 0.05 0.05 0.04 0.03
0.39 0.32 0.23 0.22 0.21 0.26 0.29 0.20 0.06 0.04 0.04 0.03 0.03 0.03 0.04 0.04 0.03 0.03 0.07 0.13 0.14 0.18 0.22 0.25 0.32 0.39 0.42 0.52 0.59 0.64 0.66 0.55 0.51 0.43 0.34 0.32 0.29 0.24 0.20 0.14 0.12 0.10 0.08 0.08 0.08 0.06 0.06 0.06 0.03
0.42 0.22 0.20 0.24 0.38 0.43 0.34 0.36 0.09 0.05 0.05 0.04 0.03 0.04 0.05 0.05 0.03 0.02 0.04 0.11 0.13 0.14 0.20 0.26 0.32 0.38 0.39 0.54 0.64 0.59 0.60 0.51 0.42 0.36 0.31 0.30 0.30 0.26 0.20 0.17 0.12 0.11 0.09 0.07 0.06 0.05 0.06 0.09 0.10
0.33 0.20 0.24 0.32 0.45 0.52 0.37 0.39 0.15 0.04 0.04 0.04 0.03 0.03 0.04 0.05 0.04 0.02 0.03 0.06 0.11 0.12 0.17 0.26 0.33 0.41 0.40 0.48 0.63 0.61 0.53 0.45 0.36 0.34 0.32 0.30 0.30 0.29 0.23 0.18 0.13 0.11 0.10 0.08 0.06 0.06 0.07 0.10 0.14
0.30 0.37 0.42 0.48 0.73 0.91 0.34 0.29 0.17 0.10 0.10 0.06 0.04 0.03 0.04 0.04 0.04 0.03 0.02 0.04 0.10 0.13 0.17 0.25 0.34 0.41 0.42 0.44 0.54 0.62 0.54 0.47 0.40 0.34 0.31 0.30 0.29 0.29 0.26 0.20 0.16 0.11 0.09 0.09 0.08 0.08 0.08 0.10 0.12
0.51 0.79 1.13 1.16 1.20 0.75 0.14 0.17 0.17 0.11 0.10 0.10 0.07 0.04 0.04 0.03 0.04 0.04 0.03 0.04 0.07 0.12 0.16 0.22 0.32 0.39 0.43 0.41 0.45 0.50 0.55 0.51 0.41 0.32 0.29 0.27 0.26 0.25 0.23 0.21 0.16 0.12 0.09 0.08 0.09 0.10 0.10 0.10 0.12
0.54 0.72 0.94 0.85 0.56 0.21 0.07 0.14 0.13 0.08 0.06 0.07 0.05 0.03 0.02 0.03 0.03 0.04 0.04 0.04 0.07 0.09 0.13 0.18 0.26 0.35 0.44 0.43 0.41 0.42 0.47 0.54 0.46 0.35 0.29 0.25 0.22 0.20 0.18 0.17 0.16 0.14 0.10 0.10 0.12 0.12 0.12 0.13 0.14
0.50 0.54 0.46 0.59 0.43 0.27 0.17 0.11 0.09 0.03 0.03 0.04 0.04 0.03 0.03 0.03 0.04 0.04 0.04 0.05 0.06 0.09 0.10 0.15 0.21 0.29 0.39 0.46 0.43 0.39 0.40 0.46 0.48 0.39 0.31 0.28 0.21 0.19 0.18 0.17 0.15 0.15 0.14 0.14 0.15 0.16 0.15 0.15 0.16
0.44 0.51 0.63 0.89 0.74 0.38 0.19 0.14 0.16 0.09 0.07 0.06 0.05 0.05 0.04 0.03 0.04 0.05 0.05 0.06 0.06 0.08 0.09 0.14 0.19 0.25 0.31 0.42 0.49 0.43 0.37 0.38 0.43 0.44 0.35 0.27 0.24 0.20 0.20 0.20 0.18 0.18 0.17 0.15 0.17 0.18 0.16 0.18 0.20
0.54 0.68 0.86 0.88 0.60 0.41 0.24 0.21 0.22 0.15 0.12 0.11 0.09 0.07 0.06 0.05 0.05 0.06 0.06 0.06 0.07 0.08 0.09 0.13 0.20 0.24 0.28 0.34 0.42 0.46 0.39 0.38 0.41 0.45 0.39 0.30 0.23 0.21 0.19 0.20 0.21 0.22 0.21 0.19 0.20 0.20 0.19 0.22 0.22
0.47 0.61 0.75 0.88 0.60 0.30 0.24 0.21 0.18 0.14 0.12 0.12 0.10 0.07 0.05 0.04 0.04 0.04 0.04 0.06 0.08 0.10 0.11 0.13 0.20 0.23 0.24 0.29 0.35 0.39 0.39 0.38 0.42 0.41 0.43 0.38 0.28 0.21 0.17 0.17 0.21 0.25 0.25 0.22 0.24 0.25 0.23 0.25 0.27

GEFSSGP_prec_meanprecacc_162.txt.gz
Total_Precipitation_Accumulation
0.04 0.03 0.03 0.04 0.03 0.02 0.00 0.00 0.00 0.00 0.00 0.00 0.00 0.00 0.00 0.00 0.00 0.01 0.01 0.01 0.02 0.04 0.08 0.15 0.18 0.19 0.21 0.22 0.20 0.18 0.15 0.14 0.15 0.14 0.14 0.15 0.15 0.15 0.16 0.18 0.19 0.21 0.21 0.23 0.24 0.24 0.22 0.16 0.16
0.04 0.03 0.04 0.05 0.02 0.01 0.00 0.00 0.00 0.00 0.00 0.00 0.00 0.00 0.00 0.00 0.00 0.00 0.00 0.01 0.01 0.02 0.05 0.10 0.17 0.20 0.22 0.21 0.21 0.18 0.16 0.15 0.14 0.14 0.13 0.13 0.13 0.14 0.15 0.16 0.16 0.17 0.19 0.21 0.20 0.20 0.20 0.15 0.15
0.05 0.06 0.07 0.05 0.02 0.00 0.00 0.00 0.00 0.00 0.00 0.00 0.00 0.00 0.00 0.00 0.00 0.01 0.01 0.01 0.01 0.01 0.03 0.10 0.18 0.22 0.24 0.24 0.23 0.20 0.18 0.17 0.16 0.15 0.14 0.14 0.14 0.15 0.14 0.13 0.12 0.12 0.13 0.14 0.15 0.18 0.18 0.17 0.15
0.08 0.12 0.11 0.06 0.01 0.00 0.00 0.00 0.00 0.00 0.00 0.00 0.00 0.00 0.00 0.00 0.00 0.01 0.01 0.01 0.01 0.02 0.04 0.10 0.18 0.23 0.25 0.27 0.25 0.22 0.20 0.19 0.18 0.17 0.16 0.17 0.18 0.17 0.15 0.12 0.10 0.09 0.09 0.10 0.13 0.17 0.22 0.17 0.15
0.12 0.16 0.13 0.05 0.01 0.00 0.00 0.00 0.00 0.00 0.00 0.00 0.00 0.00 0.00 0.00 0.00 0.01 0.01 0.02 0.03 0.04 0.06 0.11 0.18 0.24 0.26 0.28 0.26 0.24 0.23 0.23 0.22 0.21 0.20 0.21 0.20 0.18 0.15 0.12 0.11 0.08 0.07 0.08 0.10 0.13 0.22 0.20 0.19
0.16 0.17 0.11 0.04 0.01 0.00 0.00 0.00 0.00 0.00 0.00 0.00 0.00 0.00 0.00 0.00 0.00 0.00 0.00 0.01 0.01 0.02 0.03 0.08 0.18 0.24 0.27 0.31 0.30 0.28 0.29 0.29 0.27 0.26 0.26 0.26 0.24 0.22 0.18 0.16 0.14 0.11 0.09 0.08 0.08 0.09 0.14 0.18 0.21
0.16 0.15 0.08 0.03 0.01 0.00 0.00 0.00 0.00 0.00 0.00 0.00 0.00 0.00 0.00 0.00 0.00 0.00 0.00 0.01 0.02 0.03 0.04 0.09 0.17 0.24 0.29 0.34 0.35 0.35 0.36 0.36 0.34 0.31 0.30 0.31 0.28 0.25 0.22 0.17 0.13 0.11 0.10 0.09 0.08 0.06 0.08 0.12 0.17
0.19 0.19 0.09 0.03 0.02 0.01 0.00 0.00 0.00 0.01 0.00 0.00 0.00 0.00 0.00 0.01 0.01 0.00 0.01 0.02 0.04 0.05 0.07 0.10 0.17 0.23 0.28 0.35 0.39 0.41 0.42 0.42 0.44 0.41 0.34 0.33 0.33 0.32 0.29 0.19 0.15 0.12 0.11 0.10 0.09 0.08 0.06 0.05 0.06
0.24 0.27 0.11 0.03 0.02 0.02 0.01 0.01 0.01 0.01 0.01 0.01 0.00 0.00 0.01 0.02 0.02 0.02 0.03 0.05 0.07 0.09 0.11 0.14 0.21 0.27 0.30 0.34 0.38 0.46 0.51 0.53 0.54 0.52 0.44 0.39 0.36 0.31 0.26 0.20 0.16 0.14 0.11 0.09 0.09 0.09 0.08 0.06 0.03
0.28 0.23 0.08 0.02 0.02 0.03 0.03 0.03 0.03 0.04 0.02 0.01 0.01 0.01 0.02 0.03 0.04 0.05 0.05 0.07 0.08 0.10 0.13 0.17 0.22 0.29 0.36 0.40 0.44 0.50 0.54 0.57 0.54 0.46 0.43 0.41 0.37 0.31 0.25 0.24 0.24 0.19 0.14 0.13 0.13 0.10 0.08 0.05 0.03
0.22 0.15 0.06 0.03 0.03 0.04 0.06 0.06 0.04 0.06 0.05 0.03 0.02 0.02 0.04 0.05 0.06 0.07 0.07 0.07 0.08 0.10 0.14 0.21 0.27 0.33 0.41 0.44 0.47 0.51 0.52 0.54 0.52 0.43 0.37 0.35 0.36 0.32 0.29 0.24 0.23 0.22 0.20 0.19 0.17 0.14 0.11 0.11 0.12
0.16 0.10 0.07 0.05 0.05 0.07 0.07 0.08 0.07 0.06 0.06 0.05 0.05 0.04 0.05 0.07 0.08 0.09 0.09 0.09 0.10 0.14 0.17 0.23 0.31 0.37 0.42 0.47 0.48 0.49 0.50 0.48 0.45 0.41 0.39 0.37 0.33 0.27 0.23 0.19 0.16 0.16 0.17 0.19 0.20 0.17 0.17 0.14 0.13
0.14 0.09 0.07 0.07 0.08 0.09 0.10 0.10 0.09 0.05 0.05 0.06 0.07 0.06 0.06 0.08 0.10 0.12 0.13 0.13 0.13 0.16 0.20 0.25 0.33 0.38 0.43 0.50 0.55 0.53 0.50 0.45 0.40 0.39 0.41 0.39 0.32 0.26 0.24 0.18 0.15 0.13 0.11 0.10 0.09 0.08 0.09 0.10 0.09
0.14 0.12 0.09 0.09 0.10 0.12 0.15 0.13 0.12 0.06 0.05 0.08 0.08 0.09 0.07 0.08 0.11 0.15 0.17 0.17 0.15 0.17 0.20 0.25 0.33 0.40 0.46 0.50 0.54 0.54 0.52 0.49 0.47 0.42 0.39 0.40 0.40 0.31 0.27 0.23 0.18 0.15 0.13 0.09 0.07 0.05 0.04 0.04 0.04
0.18 0.20 0.15 0.11 0.10 0.11 0.19 0.22 0.11 0.06 0.07 0.09 0.08 0.10 0.09 0.07 0.09 0.12 0.17 0.19 0.16 0.18 0.22 0.28 0.33 0.44 0.51 0.51 0.55 0.57 0.54 0.53 0.52 0.45 0.40 0.39 0.41 0.41 0.33 0.26 0.22 0.19 0.16 0.13 0.10 0.07 0.04 0.02 0.02
0.28 0.35 0.28 0.14 0.11 0.12 0.25 0.25 0.08 0.06 0.09 0.10 0.09 0.10 0.10 0.08 0.07 0.10 0.15 0.21 0.21 0.22 0.24 0.29 0.36 0.43 0.52 0.56 0.57 0.61 0.61 0.56 0.56 0.55 0.46 0.42 0.41 0.42 0.43 0.35 0.26 0.19 0.20 0.20 0.18 0.14 0.08 0.03 0.02
0.41 0.39 0.26 0.16 0.14 0.17 0.25 0.21 0.08 0.07 0.10 0.09 0.09 0.10 0.10 0.10 0.08 0.08 0.13 0.18 0.23 0.24 0.27 0.32 0.40 0.42 0.50 0.62 0.63 0.62 0.66 0.64 0.61 0.64 0.59 0.49 0.45 0.44 0.46 0.44 0.36 0.26 0.22 0.20 0.19 0.16 0.11 0.06 0.03
0.40 0.29 0.22 0.17 0.16 0.19 0.22 0.16 0.10 0.09 0.10 0.09 0.07 0.07 0.09 0.10 0.08 0.08 0.12 0.17 0.24 0.27 0.31 0.36 0.42 0.45 0.51 0.69 0.80 0.73 0.73 0.71 0.67 0.64 0.61 0.55 0.50 0.45 0.44 0.46 0.43 0.34 0.26 0.21 0.19 0.17 0.13 0.09 0.05
0.26 0.31 0.27 0.17 0.15 0.21 0.22 0.15 0.09 0.09 0.08 0.08 0.07 0.06 0.07 0.08 0.07 0.08 0.12 0.17 0.22 0.29 0.35 0.39 0.43 0.49 0.58 0.69 0.82 0.80 0.73 0.73 0.68 0.63 0.60 0.53 0.50 0.48 0.44 0.41 0.41 0.40 0.33 0.23 0.18 0.19 0.17 0.12 0.09
0.34 0.36 0.29 0.21 0.17 0.26 0.25 0.16 0.09 0.08 0.07 0.07 0.06 0.06 0.06 0.06 0.06 0.08 0.12 0.16 0.20 0.27 0.32 0.37 0.43 0.48 0.56 0.63 0.67 0.75 0.72 0.72 0.72 0.65 0.63 0.56 0.50 0.47 0.46 0.40 0.36 0.35 0.34 0.29 0.20 0.16 0.17 0.14 0.09
0.40 0.33 0.24 0.24 0.22 0.28 0.33 0.24 0.09 0.07 0.06 0.05 0.05 0.05 0.07 0.07 0.06 0.06 0.12 0.17 0.20 0.26 0.29 0.32 0.39 0.47 0.54 0.68 0.77 0.82 0.93 0.90 0.86 0.79 0.69 0.58 0.52 0.48 0.46 0.40 0.34 0.31 0.29 0.27 0.22 0.16 0.14 0.14 0.08
0.43 0.23 0.21 0.25 0.39 0.45 0.39 0.43 0.13 0.08 0.07 0.06 0.06 0.06 0.08 0.08 0.06 0.06 0.09 0.16 0.18 0.22 0.28 0.34 0.39 0.48 0.53 0.70 0.86 0.80 0.86 0.84 0.75 0.69 0.68 0.60 0.53 0.50 0.46 0.42 0.34 0.31 0.28 0.24 0.21 0.19 0.16 0.17 0.15
0.33 0.20 0.25 0.32 0.45 0.54 0.40 0.44 0.18 0.07 0.07 0.05 0.05 0.05 0.06 0.07 0.07 0.06 0.07 0.10 0.15 0.19 0.26 0.34 0.41 0.51 0.56 0.65 0.84 0.84 0.74 0.71 0.68 0.68 0.68 0.64 0.56 0.52 0.49 0.45 0.39 0.32 0.29 0.26 0.21 0.18 0.17 0.18 0.20
0.31 0.38 0.43 0.49 0.74 0.92 0.36 0.34 0.22 0.14 0.14 0.08 0.05 0.04 0.05 0.05 0.07 0.06 0.06 0.07 0.14 0.19 0.25 0.34 0.45 0.51 0.57 0.60 0.71 0.85 0.77 0.71 0.68 0.69 0.70 0.67 0.61 0.54 0.50 0.46 0.41 0.35 0.31 0.27 0.24 0.20 0.18 0.17 0.16
0.52 0.80 1.15 1.17 1.21 0.76 0.16 0.23 0.24 0.15 0.12 0.12 0.08 0.05 0.04 0.04 0.06 0.07 0.07 0.08 0.12 0.18 0.24 0.32 0.44 0.51 0.56 0.58 0.62 0.71 0.79 0.76 0.68 0.61 0.60 0.62 0.61 0.56 0.48 0.44 0.39 0.34 0.31 0.30 0.29 0.25 0.20 0.17 0.17
0.54 0.73 0.95 0.87 0.57 0.22 0.10 0.20 0.19 0.12 0.08 0.08 0.06 0.04 0.03 0.03 0.04 0.06 0.07 0.09 0.12 0.15 0.20 0.27 0.36 0.47 0.57 0.62 0.62 0.64 0.71 0.81 0.73 0.64 0.56 0.53 0.52 0.48 0.42 0.39 0.37 0.33 0.30 0.30 0.32 0.32 0.28 0.22 0.20
0.51 0.54 0.47 0.59 0.43 0.27 0.18 0.14 0.12 0.06 0.04 0.05 0.05 0.04 0.03 0.04 0.05 0.06 0.07 0.09 0.12 0.16 0.17 0.22 0.28 0.39 0.51 0.62 0.67 0.66 0.66 0.72 0.77 0.67 0.58 0.52 0.46 0.44 0.42 0.39 0.37 0.34 0.32 0.32 0.33 0.34 0.31 0.27 0.24
0.44 0.51 0.63 0.90 0.75 0.39 0.20 0.17 0.19 0.11 0.09 0.07 0.06 0.06 0.04 0.04 0.05 0.06 0.07 0.10 0.12 0.15 0.16 0.20 0.26 0.33 0.42 0.55 0.70 0.70 0.65 0.64 0.71 0.72 0.64 0.54 0.46 0.41 0.41 0.40 0.39 0.36 0.34 0.33 0.34 0.34 0.31 0.30 0.28
0.54 0.68 0.86 0.88 0.61 0.42 0.25 0.22 0.23 0.16 0.13 0.12 0.10 0.08 0.06 0.05 0.06 0.07 0.07 0.09 0.12 0.15 0.18 0.22 0.28 0.32 0.37 0.44 0.59 0.69 0.68 0.68 0.70 0.73 0.69 0.59 0.46 0.39 0.36 0.36 0.37 0.39 0.37 0.34 0.36 0.34 0.33 0.34 0.31
0.47 0.61 0.76 0.89 0.61 0.31 0.26 0.21 0.18 0.14 0.13 0.13 0.11 0.08 0.06 0.04 0.04 0.05 0.06 0.09 0.12 0.15 0.18 0.22 0.29 0.31 0.33 0.38 0.48 0.59 0.65 0.67 0.70 0.67 0.69 0.69 0.58 0.43 0.33 0.31 0.33 0.38 0.39 0.36 0.38 0.37 0.34 0.36 0.35

GEFSSGP_prec_meanprecacc_168.txt.gz
Total_Precipitation_Accumulation
0.04 0.03 0.03 0.04 0.03 0.02 0.00 0.00 0.00 0.00 0.00 0.00 0.00 0.00 0.00 0.00 0.00 0.01 0.01 0.01 0.02 0.04 0.08 0.15 0.19 0.21 0.24 0.24 0.23 0.21 0.18 0.17 0.18 0.18 0.18 0.19 0.19 0.19 0.19 0.21 0.22 0.23 0.24 0.25 0.26 0.26 0.23 0.17 0.17
0.04 0.03 0.05 0.06 0.03 0.01 0.00 0.00 0.00 0.00 0.00 0.00 0.00 0.00 0.00 0.00 0.00 0.00 0.00 0.01 0.01 0.02 0.05 0.11 0.19 0.22 0.25 0.25 0.24 0.22 0.20 0.19 0.18 0.18 0.19 0.20 0.19 0.19 0.20 0.20 0.20 0.20 0.22 0.24 0.23 0.22 0.21 0.17 0.16
0.05 0.06 0.08 0.06 0.02 0.00 0.00 0.00 0.00 0.00 0.00 0.00 0.00 0.00 0.00 0.00 0.00 0.01 0.01 0.01 0.01 0.01 0.04 0.10 0.20 0.24 0.27 0.28 0.27 0.24 0.23 0.22 0.21 0.21 0.21 0.21 0.22 0.23 0.21 0.18 0.17 0.16 0.16 0.17 0.18 0.20 0.20 0.19 0.16
0.08 0.12 0.12 0.07 0.01 0.00 0.00 0.00 0.00 0.00 0.00 0.00 0.00 0.00 0.00 0.00 0.00 0.01 0.01 0.01 0.01 0.02 0.04 0.11 0.20 0.26 0.29 0.31 0.30 0.27 0.26 0.26 0.25 0.24 0.24 0.26 0.28 0.27 0.24 0.20 0.17 0.14 0.12 0.14 0.15 0.19 0.23 0.19 0.16
0.12 0.16 0.13 0.06 0.01 0.00 0.00 0.00 0.00 0.00 0.00 0.00 0.00 0.00 0.00 0.00 0.00 0.01 0.01 0.02 0.03 0.04 0.06 0.12 0.20 0.28 0.31 0.33 0.32 0.31 0.31 0.31 0.30 0.29 0.30 0.31 0.31 0.28 0.25 0.22 0.18 0.15 0.12 0.11 0.12 0.15 0.23 0.22 0.21
0.16 0.17 0.11 0.04 0.01 0.00 0.00 0.00 0.00 0.00 0.00 0.00 0.00 0.00 0.00 0.00 0.00 0.00 0.00 0.01 0.01 0.02 0.04 0.10 0.21 0.28 0.32 0.36 0.37 0.37 0.38 0.39 0.38 0.36 0.37 0.37 0.36 0.33 0.29 0.27 0.23 0.19 0.15 0.13 0.11 0.11 0.16 0.19 0.22
0.16 0.15 0.08 0.03 0.01 0.00 0.00 0.00 0.00 0.00 0.00 0.00 0.00 0.00 0.00 0.00 0.00 0.00 0.01 0.01 0.02 0.04 0.07 0.12 0.21 0.29 0.35 0.41 0.43 0.45 0.47 0.48 0.45 0.43 0.42 0.44 0.42 0.40 0.36 0.31 0.26 0.21 0.19 0.17 0.14 0.10 0.10 0.14 0.18
0.19 0.19 0.09 0.03 0.02 0.01 0.00 0.00 0.00 0.01 0.00 0.00 0.00 0.00 0.00 0.01 0.01 0.01 0.02 0.03 0.05 0.07 0.10 0.15 0.23 0.28 0.34 0.42 0.48 0.52 0.54 0.54 0.56 0.55 0.48 0.47 0.49 0.49 0.47 0.38 0.32 0.27 0.24 0.20 0.18 0.14 0.10 0.08 0.08
0.24 0.27 0.11 0.03 0.02 0.02 0.01 0.01 0.01 0.01 0.01 0.01 0.00 0.00 0.01 0.02 0.02 0.03 0.05 0.08 0.11 0.13 0.15 0.19 0.27 0.34 0.37 0.41 0.47 0.58 0.65 0.66 0.68 0.68 0.60 0.55 0.54 0.50 0.46 0.40 0.36 0.33 0.27 0.21 0.20 0.17 0.14 0.11 0.06
0.29 0.23 0.08 0.02 0.02 0.03 0.03 0.03 0.03 0.04 0.02 0.01 0.01 0.01 0.02 0.03 0.05 0.06 0.08 0.10 0.13 0.15 0.18 0.22 0.29 0.37 0.44 0.49 0.54 0.60 0.67 0.71 0.69 0.60 0.57 0.56 0.52 0.48 0.44 0.43 0.43 0.39 0.34 0.29 0.26 0.21 0.15 0.11 0.07
0.22 0.15 0.06 0.03 0.03 0.04 0.06 0.06 0.05 0.06 0.05 0.03 0.03 0.02 0.04 0.05 0.06 0.08 0.10 0.12 0.13 0.15 0.19 0.26 0.33 0.42 0.49 0.53 0.56 0.60 0.64 0.68 0.66 0.56 0.50 0.47 0.49 0.47 0.47 0.43 0.42 0.42 0.41 0.40 0.34 0.28 0.21 0.17 0.16
0.16 0.10 0.07 0.05 0.05 0.07 0.07 0.08 0.07 0.06 0.06 0.05 0.05 0.04 0.05 0.08 0.09 0.10 0.11 0.13 0.16 0.20 0.24 0.29 0.37 0.45 0.52 0.56 0.57 0.58 0.61 0.61 0.59 0.54 0.51 0.48 0.44 0.41 0.41 0.40 0.36 0.34 0.35 0.37 0.37 0.31 0.27 0.21 0.17
0.14 0.09 0.07 0.07 0.08 0.09 0.10 0.11 0.09 0.05 0.05 0.06 0.07 0.07 0.07 0.09 0.11 0.13 0.15 0.16 0.18 0.23 0.28 0.32 0.40 0.47 0.53 0.60 0.63 0.61 0.60 0.57 0.56 0.54 0.52 0.48 0.42 0.38 0.39 0.38 0.38 0.34 0.29 0.27 0.26 0.22 0.19 0.17 0.15
0.14 0.12 0.09 0.09 0.10 0.12 0.15 0.13 0.12 0.06 0.05 0.08 0.09 0.10 0.08 0.09 0.13 0.16 0.19 0.20 0.20 0.24 0.30 0.35 0.42 0.49 0.56 0.59 0.61 0.61 0.61 0.61 0.62 0.59 0.53 0.50 0.49 0.41 0.40 0.40 0.38 0.36 0.31 0.25 0.22 0.19 0.16 0.12 0.09
0.18 0.20 0.16 0.11 0.10 0.11 0.20 0.22 0.11 0.06 0.07 0.09 0.09 0.11 0.11 0.09 0.11 0.14 0.19 0.22 0.21 0.25 0.32 0.39 0.43 0.53 0.60 0.59 0.63 0.65 0.63 0.64 0.66 0.62 0.57 0.54 0.52 0.51 0.45 0.41 0.39 0.37 0.35 0.30 0.26 0.23 0.18 0.16 0.12
0.28 0.36 0.28 0.15 0.11 0.12 0.25 0.26 0.09 0.06 0.09 0.11 0.11 0.11 0.11 0.10 0.09 0.12 0.17 0.24 0.25 0.28 0.33 0.40 0.47 0.53 0.61 0.63 0.64 0.69 0.71 0.67 0.68 0.72 0.66 0.60 0.57 0.56 0.56 0.50 0.43 0.37 0.40 0.40 0.35 0.30 0.24 0.19 0.16
0.42 0.39 0.27 0.17 0.15 0.18 0.26 0.23 0.09 0.08 0.12 0.12 0.13 0.11 0.11 0.11 0.10 0.10 0.15 0.22 0.28 0.29 0.34 0.40 0.49 0.51 0.59 0.70 0.69 0.69 0.75 0.77 0.76 0.81 0.80 0.70 0.63 0.59 0.60 0.59 0.53 0.45 0.43 0.41 0.37 0.31 0.27 0.22 0.18
0.40 0.29 0.22 0.18 0.17 0.21 0.23 0.18 0.11 0.10 0.12 0.13 0.13 0.11 0.11 0.12 0.09 0.10 0.15 0.20 0.29 0.33 0.37 0.43 0.51 0.54 0.61 0.77 0.86 0.79 0.80 0.83 0.84 0.84 0.80 0.77 0.72 0.62 0.58 0.62 0.60 0.53 0.46 0.41 0.36 0.31 0.26 0.22 0.19
0.26 0.31 0.28 0.18 0.17 0.23 0.23 0.16 0.11 0.09 0.10 0.11 0.10 0.09 0.09 0.10 0.09 0.10 0.15 0.20 0.27 0.36 0.41 0.47 0.52 0.58 0.68 0.77 0.89 0.85 0.80 0.83 0.83 0.81 0.79 0.73 0.73 0.69 0.62 0.57 0.57 0.56 0.49 0.40 0.35 0.33 0.29 0.25 0.22
0.34 0.38 0.30 0.22 0.17 0.27 0.26 0.17 0.10 0.09 0.09 0.09 0.07 0.07 0.08 0.08 0.08 0.10 0.15 0.20 0.25 0.33 0.38 0.44 0.52 0.57 0.65 0.70 0.73 0.81 0.78 0.80 0.85 0.82 0.82 0.76 0.69 0.68 0.67 0.59 0.53 0.51 0.48 0.44 0.35 0.30 0.29 0.26 0.22
0.40 0.34 0.25 0.24 0.23 0.29 0.34 0.26 0.11 0.08 0.07 0.07 0.07 0.06 0.08 0.10 0.08 0.08 0.14 0.20 0.24 0.31 0.37 0.40 0.48 0.56 0.63 0.76 0.83 0.89 1.01 0.99 0.99 0.97 0.89 0.80 0.73 0.65 0.62 0.59 0.54 0.48 0.44 0.42 0.37 0.29 0.26 0.25 0.19
0.44 0.23 0.22 0.26 0.41 0.47 0.41 0.45 0.14 0.10 0.09 0.08 0.08 0.08 0.09 0.09 0.08 0.08 0.12 0.20 0.22 0.28 0.38 0.44 0.47 0.56 0.61 0.80 0.94 0.88 0.95 0.94 0.87 0.85 0.87 0.84 0.76 0.69 0.62 0.57 0.52 0.50 0.44 0.39 0.35 0.32 0.28 0.27 0.25
0.34 0.21 0.25 0.33 0.46 0.55 0.41 0.46 0.21 0.09 0.09 0.07 0.07 0.07 0.08 0.09 0.09 0.08 0.09 0.13 0.20 0.26 0.35 0.45 0.52 0.60 0.65 0.74 0.93 0.93 0.84 0.81 0.80 0.85 0.87 0.88 0.84 0.77 0.69 0.61 0.54 0.49 0.44 0.39 0.34 0.31 0.30 0.30 0.31
0.32 0.38 0.44 0.49 0.74 0.93 0.37 0.36 0.25 0.17 0.17 0.11 0.07 0.06 0.07 0.08 0.09 0.08 0.07 0.10 0.19 0.27 0.34 0.44 0.54 0.61 0.66 0.67 0.79 0.94 0.87 0.81 0.80 0.85 0.90 0.90 0.89 0.83 0.76 0.67 0.59 0.51 0.45 0.40 0.35 0.30 0.29 0.29 0.28
0.52 0.81 1.16 1.18 1.22 0.77 0.17 0.24 0.26 0.17 0.14 0.15 0.10 0.06 0.06 0.06 0.08 0.09 0.09 0.10 0.16 0.25 0.32 0.40 0.52 0.59 0.65 0.65 0.69 0.79 0.89 0.86 0.79 0.74 0.78 0.85 0.87 0.81 0.75 0.71 0.63 0.54 0.47 0.43 0.40 0.35 0.30 0.27 0.28
0.55 0.74 0.97 0.89 0.58 0.23 0.10 0.21 0.21 0.13 0.09 0.10 0.07 0.04 0.04 0.04 0.05 0.08 0.10 0.11 0.15 0.19 0.26 0.35 0.44 0.56 0.66 0.69 0.68 0.72 0.81 0.93 0.85 0.76 0.71 0.74 0.77 0.71 0.64 0.63 0.61 0.54 0.47 0.45 0.45 0.43 0.37 0.31 0.29
0.52 0.55 0.48 0.61 0.45 0.29 0.19 0.16 0.13 0.06 0.05 0.06 0.05 0.04 0.04 0.04 0.05 0.06 0.08 0.11 0.14 0.19 0.22 0.31 0.37 0.48 0.61 0.72 0.74 0.72 0.75 0.85 0.87 0.78 0.72 0.69 0.69 0.68 0.66 0.63 0.61 0.56 0.52 0.49 0.49 0.47 0.42 0.37 0.34
0.44 0.51 0.63 0.91 0.76 0.40 0.21 0.17 0.19 0.12 0.09 0.08 0.07 0.06 0.05 0.04 0.05 0.07 0.08 0.11 0.14 0.18 0.20 0.26 0.33 0.40 0.50 0.65 0.79 0.78 0.74 0.75 0.82 0.82 0.77 0.69 0.66 0.66 0.68 0.69 0.66 0.61 0.55 0.52 0.52 0.50 0.44 0.42 0.39
0.54 0.68 0.87 0.89 0.62 0.44 0.26 0.23 0.24 0.17 0.14 0.13 0.10 0.09 0.07 0.06 0.06 0.07 0.09 0.12 0.14 0.18 0.22 0.28 0.33 0.38 0.43 0.52 0.68 0.78 0.76 0.78 0.82 0.86 0.82 0.74 0.65 0.60 0.61 0.63 0.65 0.66 0.60 0.53 0.54 0.50 0.48 0.47 0.42
0.47 0.61 0.76 0.90 0.62 0.32 0.27 0.22 0.18 0.14 0.13 0.13 0.11 0.09 0.07 0.05 0.05 0.06 0.07 0.12 0.15 0.18 0.22 0.28 0.35 0.37 0.38 0.43 0.56 0.67 0.73 0.76 0.82 0.81 0.85 0.86 0.78 0.62 0.53 0.55 0.59 0.63 0.62 0.57 0.55 0.52 0.49 0.49 0.47

GEFSSGP_prec_meanprecacc_174.txt.gz
Total_Precipitation_Accumulation
0.04 0.03 0.03 0.04 0.03 0.02 0.00 0.00 0.00 0.00 0.00 0.00 0.00 0.00 0.00 0.00 0.00 0.01 0.01 0.01 0.02 0.04 0.08 0.16 0.20 0.23 0.26 0.27 0.26 0.24 0.22 0.23 0.24 0.25 0.26 0.28 0.28 0.27 0.29 0.30 0.30 0.31 0.32 0.34 0.33 0.31 0.28 0.21 0.18
0.04 0.03 0.05 0.06 0.03 0.01 0.00 0.00 0.00 0.00 0.00 0.00 0.00 0.00 0.00 0.00 0.00 0.00 0.00 0.01 0.01 0.02 0.05 0.11 0.20 0.24 0.27 0.28 0.28 0.26 0.25 0.25 0.25 0.26 0.27 0.29 0.30 0.30 0.30 0.29 0.28 0.29 0.32 0.35 0.35 0.32 0.29 0.22 0.20
0.05 0.06 0.08 0.07 0.03 0.00 0.00 0.00 0.00 0.00 0.00 0.00 0.00 0.00 0.00 0.00 0.00 0.01 0.01 0.01 0.01 0.02 0.04 0.11 0.21 0.27 0.30 0.32 0.32 0.30 0.29 0.29 0.30 0.29 0.30 0.31 0.33 0.34 0.32 0.29 0.25 0.26 0.26 0.28 0.29 0.31 0.31 0.26 0.21
0.08 0.13 0.12 0.07 0.01 0.00 0.00 0.00 0.00 0.00 0.00 0.00 0.00 0.00 0.00 0.00 0.00 0.01 0.01 0.01 0.02 0.02 0.04 0.12 0.22 0.29 0.34 0.36 0.35 0.34 0.33 0.33 0.34 0.34 0.34 0.36 0.38 0.38 0.35 0.33 0.29 0.26 0.23 0.24 0.25 0.30 0.35 0.29 0.22
0.12 0.16 0.13 0.06 0.01 0.00 0.00 0.00 0.00 0.00 0.00 0.00 0.00 0.00 0.00 0.00 0.00 0.01 0.01 0.02 0.03 0.04 0.07 0.12 0.22 0.32 0.36 0.39 0.40 0.39 0.40 0.39 0.39 0.39 0.40 0.41 0.41 0.38 0.37 0.35 0.32 0.29 0.26 0.25 0.23 0.25 0.32 0.30 0.26
0.16 0.18 0.11 0.04 0.01 0.00 0.00 0.00 0.00 0.00 0.00 0.00 0.00 0.00 0.00 0.00 0.00 0.00 0.00 0.01 0.01 0.03 0.05 0.11 0.23 0.32 0.38 0.43 0.45 0.46 0.48 0.49 0.48 0.47 0.48 0.48 0.46 0.43 0.38 0.37 0.34 0.31 0.29 0.27 0.26 0.25 0.26 0.26 0.27
0.16 0.16 0.08 0.03 0.01 0.00 0.00 0.00 0.00 0.00 0.00 0.00 0.00 0.00 0.00 0.00 0.00 0.00 0.01 0.01 0.03 0.04 0.07 0.13 0.23 0.32 0.41 0.48 0.52 0.54 0.57 0.58 0.56 0.55 0.55 0.56 0.53 0.50 0.45 0.40 0.36 0.34 0.33 0.32 0.31 0.27 0.22 0.22 0.23
0.19 0.19 0.09 0.03 0.02 0.01 0.00 0.00 0.00 0.01 0.00 0.00 0.00 0.00 0.00 0.01 0.01 0.01 0.02 0.04 0.06 0.08 0.11 0.16 0.24 0.31 0.40 0.49 0.56 0.61 0.65 0.65 0.68 0.69 0.61 0.60 0.62 0.61 0.57 0.47 0.41 0.38 0.37 0.35 0.34 0.30 0.23 0.18 0.17
0.24 0.28 0.11 0.03 0.02 0.02 0.01 0.01 0.01 0.01 0.01 0.01 0.00 0.00 0.01 0.02 0.02 0.04 0.05 0.08 0.11 0.14 0.16 0.20 0.29 0.37 0.42 0.48 0.55 0.67 0.76 0.79 0.82 0.82 0.73 0.69 0.68 0.62 0.57 0.48 0.44 0.41 0.39 0.36 0.35 0.33 0.30 0.24 0.18
0.29 0.23 0.08 0.02 0.02 0.03 0.03 0.03 0.03 0.04 0.02 0.01 0.01 0.01 0.02 0.03 0.05 0.07 0.08 0.10 0.13 0.15 0.19 0.23 0.31 0.39 0.49 0.56 0.63 0.71 0.78 0.83 0.81 0.72 0.72 0.71 0.65 0.59 0.54 0.53 0.52 0.46 0.42 0.41 0.40 0.36 0.31 0.28 0.21
0.22 0.15 0.06 0.03 0.03 0.04 0.06 0.06 0.05 0.06 0.05 0.03 0.03 0.03 0.04 0.05 0.07 0.08 0.10 0.12 0.14 0.16 0.20 0.27 0.35 0.44 0.54 0.60 0.65 0.70 0.73 0.76 0.76 0.67 0.61 0.61 0.62 0.58 0.57 0.52 0.51 0.50 0.49 0.49 0.46 0.42 0.35 0.31 0.28
0.16 0.10 0.07 0.05 0.05 0.07 0.07 0.08 0.07 0.06 0.06 0.05 0.05 0.04 0.05 0.08 0.09 0.11 0.12 0.14 0.17 0.21 0.25 0.30 0.39 0.47 0.55 0.62 0.66 0.68 0.69 0.68 0.66 0.63 0.62 0.60 0.59 0.51 0.50 0.48 0.43 0.42 0.43 0.45 0.46 0.42 0.38 0.32 0.27
0.14 0.09 0.07 0.07 0.08 0.09 0.10 0.11 0.09 0.05 0.05 0.06 0.07 0.07 0.07 0.09 0.11 0.14 0.16 0.17 0.19 0.24 0.29 0.34 0.42 0.49 0.57 0.66 0.72 0.73 0.70 0.64 0.61 0.61 0.63 0.61 0.55 0.51 0.49 0.45 0.44 0.41 0.38 0.35 0.34 0.32 0.30 0.28 0.25
0.14 0.12 0.09 0.09 0.10 0.12 0.15 0.13 0.12 0.06 0.05 0.08 0.09 0.10 0.09 0.10 0.13 0.17 0.21 0.22 0.21 0.26 0.32 0.38 0.45 0.52 0.60 0.66 0.70 0.73 0.73 0.70 0.68 0.65 0.62 0.63 0.62 0.54 0.52 0.50 0.44 0.42 0.41 0.36 0.32 0.27 0.26 0.24 0.21
0.18 0.20 0.16 0.11 0.10 0.11 0.20 0.22 0.11 0.06 0.07 0.09 0.10 0.12 0.11 0.11 0.13 0.16 0.22 0.26 0.23 0.27 0.36 0.44 0.47 0.57 0.66 0.66 0.73 0.75 0.75 0.74 0.72 0.67 0.65 0.67 0.67 0.67 0.59 0.54 0.49 0.43 0.43 0.42 0.40 0.36 0.30 0.26 0.22
0.28 0.36 0.29 0.15 0.12 0.13 0.26 0.26 0.09 0.06 0.09 0.11 0.12 0.12 0.12 0.11 0.11 0.14 0.20 0.28 0.29 0.31 0.38 0.45 0.51 0.57 0.67 0.70 0.74 0.80 0.82 0.78 0.74 0.76 0.72 0.71 0.73 0.74 0.74 0.65 0.56 0.46 0.47 0.49 0.48 0.45 0.39 0.32 0.28
0.42 0.40 0.28 0.18 0.16 0.19 0.27 0.23 0.09 0.08 0.12 0.13 0.14 0.12 0.12 0.12 0.10 0.12 0.18 0.26 0.30 0.32 0.39 0.46 0.55 0.56 0.65 0.77 0.77 0.79 0.85 0.87 0.82 0.85 0.85 0.78 0.77 0.78 0.80 0.79 0.69 0.58 0.53 0.50 0.47 0.44 0.40 0.35 0.31
0.41 0.30 0.23 0.19 0.19 0.22 0.24 0.19 0.12 0.10 0.13 0.13 0.15 0.12 0.12 0.12 0.10 0.12 0.18 0.23 0.31 0.36 0.41 0.49 0.57 0.61 0.68 0.85 0.94 0.88 0.89 0.92 0.91 0.89 0.85 0.85 0.84 0.78 0.77 0.81 0.78 0.69 0.60 0.53 0.48 0.42 0.37 0.33 0.30
0.27 0.32 0.28 0.19 0.18 0.24 0.23 0.17 0.11 0.10 0.10 0.12 0.12 0.12 0.11 0.10 0.10 0.11 0.16 0.22 0.30 0.41 0.44 0.52 0.58 0.65 0.76 0.87 0.98 0.94 0.88 0.89 0.90 0.87 0.84 0.79 0.82 0.83 0.80 0.76 0.75 0.73 0.63 0.52 0.48 0.46 0.41 0.36 0.32
0.34 0.38 0.30 0.22 0.18 0.28 0.27 0.17 0.11 0.10 0.10 0.11 0.10 0.11 0.12 0.10 0.09 0.10 0.16 0.22 0.28 0.41 0.44 0.49 0.58 0.65 0.74 0.82 0.84 0.89 0.87 0.87 0.90 0.87 0.87 0.81 0.76 0.78 0.83 0.79 0.73 0.67 0.63 0.57 0.48 0.45 0.44 0.39 0.32
0.41 0.34 0.26 0.25 0.23 0.30 0.35 0.27 0.12 0.09 0.09 0.10 0.09 0.09 0.13 0.14 0.11 0.11 0.17 0.23 0.27 0.39 0.46 0.49 0.57 0.64 0.72 0.87 0.94 0.99 1.11 1.08 1.05 1.03 0.94 0.85 0.78 0.73 0.75 0.76 0.73 0.67 0.59 0.55 0.49 0.41 0.38 0.38 0.30
0.44 0.23 0.22 0.26 0.41 0.48 0.41 0.46 0.15 0.11 0.11 0.10 0.09 0.09 0.11 0.12 0.11 0.12 0.15 0.22 0.25 0.32 0.45 0.53 0.60 0.66 0.69 0.88 1.03 0.97 1.05 1.04 0.95 0.91 0.92 0.89 0.81 0.75 0.72 0.71 0.69 0.69 0.62 0.53 0.48 0.44 0.39 0.39 0.37
0.34 0.21 0.25 0.33 0.47 0.56 0.42 0.48 0.22 0.11 0.10 0.08 0.08 0.08 0.09 0.11 0.11 0.10 0.11 0.15 0.22 0.28 0.41 0.53 0.64 0.71 0.73 0.80 1.01 1.03 0.95 0.92 0.89 0.93 0.94 0.93 0.90 0.83 0.76 0.71 0.69 0.65 0.62 0.55 0.48 0.45 0.43 0.42 0.42
0.32 0.39 0.44 0.49 0.75 0.94 0.37 0.37 0.27 0.19 0.19 0.12 0.07 0.07 0.09 0.09 0.11 0.10 0.09 0.11 0.20 0.28 0.38 0.49 0.60 0.72 0.78 0.78 0.89 1.04 0.97 0.91 0.89 0.94 0.99 0.98 0.96 0.91 0.84 0.75 0.71 0.66 0.61 0.56 0.51 0.45 0.43 0.41 0.40
0.53 0.81 1.17 1.18 1.22 0.77 0.17 0.25 0.27 0.18 0.15 0.15 0.10 0.07 0.07 0.08 0.10 0.12 0.11 0.11 0.17 0.26 0.34 0.44 0.56 0.64 0.71 0.75 0.79 0.87 0.97 0.94 0.86 0.81 0.86 0.95 0.98 0.91 0.83 0.79 0.73 0.67 0.62 0.59 0.56 0.51 0.45 0.41 0.40
0.55 0.75 0.98 0.89 0.58 0.23 0.10 0.21 0.21 0.14 0.09 0.10 0.07 0.05 0.05 0.05 0.07 0.10 0.11 0.12 0.16 0.21 0.27 0.38 0.47 0.59 0.71 0.76 0.76 0.80 0.87 0.99 0.91 0.83 0.78 0.82 0.87 0.83 0.75 0.73 0.71 0.66 0.62 0.61 0.62 0.59 0.51 0.45 0.43
0.52 0.56 0.49 0.63 0.46 0.30 0.20 0.17 0.14 0.06 0.05 0.06 0.05 0.04 0.04 0.05 0.07 0.08 0.10 0.12 0.14 0.20 0.24 0.34 0.41 0.52 0.66 0.78 0.80 0.79 0.81 0.90 0.93 0.85 0.79 0.78 0.78 0.78 0.78 0.75 0.72 0.68 0.66 0.66 0.67 0.64 0.56 0.50 0.47
0.44 0.52 0.64 0.92 0.78 0.41 0.21 0.18 0.20 0.12 0.09 0.08 0.07 0.06 0.05 0.05 0.06 0.08 0.09 0.12 0.15 0.18 0.22 0.29 0.37 0.45 0.55 0.69 0.84 0.84 0.79 0.79 0.86 0.87 0.84 0.78 0.75 0.76 0.78 0.81 0.78 0.73 0.69 0.70 0.72 0.68 0.60 0.57 0.54
0.54 0.69 0.87 0.90 0.63 0.45 0.28 0.24 0.24 0.17 0.14 0.13 0.10 0.09 0.07 0.06 0.07 0.08 0.10 0.13 0.15 0.19 0.24 0.30 0.37 0.42 0.47 0.56 0.73 0.83 0.82 0.83 0.87 0.90 0.88 0.83 0.76 0.73 0.73 0.75 0.78 0.80 0.74 0.69 0.73 0.71 0.66 0.64 0.59
0.47 0.61 0.76 0.91 0.63 0.33 0.29 0.24 0.19 0.14 0.13 0.13 0.11 0.09 0.07 0.05 0.05 0.06 0.07 0.13 0.17 0.20 0.25 0.31 0.38 0.41 0.42 0.49 0.60 0.71 0.79 0.82 0.87 0.87 0.92 0.95 0.89 0.75 0.67 0.68 0.73 0.77 0.77 0.72 0.71 0.71 0.67 0.67 0.64

GEFSSGP_prec_meanprecacc_180.txt.gz
Total_Precipitation_Accumulation
0.04 0.03 0.03 0.04 0.03 0.02 0.00 0.00 0.00 0.00 0.00 0.00 0.00 0.00 0.00 0.00 0.00 0.01 0.01 0.01 0.02 0.04 0.08 0.16 0.21 0.24 0.27 0.29 0.29 0.28 0.26 0.27 0.30 0.31 0.33 0.35 0.35 0.35 0.36 0.37 0.38 0.39 0.40 0.42 0.41 0.40 0.37 0.28 0.25
0.04 0.03 0.05 0.06 0.03 0.01 0.00 0.00 0.00 0.00 0.00 0.00 0.00 0.00 0.00 0.00 0.00 0.00 0.00 0.01 0.01 0.02 0.05 0.12 0.21 0.25 0.29 0.29 0.30 0.30 0.29 0.29 0.31 0.34 0.36 0.36 0.36 0.37 0.39 0.38 0.37 0.38 0.40 0.45 0.45 0.43 0.41 0.34 0.31
0.05 0.06 0.08 0.07 0.03 0.00 0.00 0.00 0.00 0.00 0.00 0.00 0.00 0.00 0.00 0.00 0.00 0.01 0.01 0.01 0.01 0.02 0.04 0.11 0.22 0.28 0.32 0.34 0.35 0.34 0.34 0.34 0.35 0.36 0.38 0.40 0.40 0.40 0.39 0.36 0.34 0.34 0.34 0.36 0.39 0.44 0.47 0.47 0.42
0.08 0.13 0.12 0.07 0.01 0.00 0.00 0.00 0.00 0.00 0.00 0.00 0.00 0.00 0.00 0.00 0.00 0.01 0.01 0.01 0.02 0.02 0.04 0.12 0.22 0.30 0.35 0.39 0.38 0.37 0.38 0.39 0.40 0.41 0.41 0.45 0.48 0.46 0.43 0.40 0.37 0.34 0.32 0.36 0.38 0.44 0.52 0.50 0.45
0.12 0.16 0.13 0.06 0.01 0.00 0.00 0.00 0.00 0.00 0.00 0.00 0.00 0.00 0.00 0.00 0.00 0.01 0.01 0.02 0.03 0.04 0.07 0.13 0.22 0.32 0.37 0.41 0.42 0.42 0.44 0.45 0.46 0.46 0.47 0.49 0.50 0.50 0.46 0.44 0.40 0.37 0.35 0.35 0.36 0.40 0.49 0.48 0.44
0.16 0.18 0.11 0.04 0.01 0.00 0.00 0.00 0.00 0.00 0.00 0.00 0.00 0.00 0.00 0.00 0.00 0.00 0.00 0.01 0.01 0.03 0.05 0.11 0.23 0.32 0.38 0.44 0.47 0.49 0.53 0.55 0.55 0.54 0.57 0.57 0.54 0.52 0.49 0.46 0.41 0.39 0.37 0.35 0.35 0.37 0.41 0.42 0.39
0.16 0.16 0.08 0.03 0.01 0.00 0.00 0.00 0.00 0.00 0.00 0.00 0.00 0.00 0.00 0.00 0.00 0.00 0.01 0.01 0.03 0.05 0.08 0.13 0.23 0.33 0.41 0.49 0.54 0.57 0.61 0.63 0.63 0.63 0.64 0.66 0.63 0.60 0.55 0.48 0.43 0.41 0.39 0.39 0.38 0.35 0.32 0.32 0.32
0.19 0.19 0.09 0.03 0.02 0.01 0.00 0.00 0.00 0.01 0.00 0.00 0.00 0.00 0.00 0.01 0.01 0.01 0.02 0.04 0.06 0.08 0.11 0.16 0.25 0.32 0.40 0.50 0.57 0.64 0.68 0.69 0.75 0.77 0.70 0.69 0.73 0.73 0.67 0.55 0.49 0.46 0.43 0.41 0.40 0.36 0.30 0.25 0.25
0.24 0.28 0.11 0.03 0.02 0.02 0.01 0.01 0.01 0.01 0.01 0.01 0.00 0.00 0.01 0.02 0.02 0.04 0.05 0.08 0.11 0.14 0.17 0.21 0.29 0.37 0.43 0.49 0.56 0.69 0.80 0.84 0.88 0.91 0.82 0.79 0.79 0.75 0.68 0.57 0.53 0.49 0.45 0.41 0.41 0.39 0.36 0.31 0.25
0.29 0.23 0.08 0.02 0.02 0.03 0.03 0.03 0.03 0.04 0.02 0.01 0.01 0.01 0.02 0.03 0.05 0.07 0.08 0.10 0.13 0.16 0.20 0.25 0.32 0.40 0.51 0.57 0.64 0.73 0.82 0.89 0.89 0.80 0.81 0.82 0.76 0.71 0.65 0.63 0.61 0.54 0.50 0.48 0.46 0.42 0.38 0.35 0.28
0.22 0.15 0.06 0.03 0.03 0.04 0.06 0.06 0.05 0.06 0.05 0.03 0.03 0.03 0.04 0.05 0.07 0.08 0.10 0.12 0.14 0.16 0.21 0.28 0.36 0.45 0.55 0.60 0.66 0.72 0.77 0.82 0.84 0.76 0.70 0.71 0.73 0.70 0.68 0.62 0.60 0.58 0.57 0.57 0.53 0.49 0.40 0.36 0.35
0.16 0.10 0.07 0.05 0.05 0.07 0.07 0.08 0.07 0.06 0.06 0.05 0.05 0.04 0.05 0.08 0.09 0.11 0.12 0.14 0.17 0.22 0.26 0.31 0.39 0.48 0.56 0.63 0.67 0.69 0.72 0.73 0.73 0.74 0.73 0.69 0.68 0.60 0.58 0.58 0.52 0.50 0.50 0.52 0.54 0.48 0.43 0.37 0.34
0.14 0.09 0.07 0.07 0.08 0.09 0.10 0.11 0.09 0.05 0.05 0.06 0.07 0.07 0.07 0.09 0.11 0.14 0.16 0.17 0.19 0.24 0.30 0.35 0.43 0.51 0.58 0.67 0.73 0.74 0.73 0.68 0.67 0.70 0.76 0.71 0.63 0.57 0.57 0.55 0.54 0.52 0.46 0.41 0.40 0.38 0.36 0.33 0.31
0.14 0.12 0.09 0.09 0.10 0.12 0.15 0.13 0.12 0.07 0.05 0.08 0.09 0.10 0.09 0.10 0.13 0.17 0.21 0.22 0.21 0.26 0.33 0.40 0.47 0.54 0.62 0.67 0.71 0.74 0.75 0.75 0.76 0.74 0.72 0.74 0.70 0.60 0.60 0.61 0.56 0.53 0.51 0.44 0.38 0.33 0.31 0.30 0.28
0.18 0.20 0.16 0.11 0.10 0.11 0.20 0.23 0.12 0.06 0.07 0.09 0.10 0.12 0.12 0.11 0.13 0.16 0.22 0.26 0.24 0.28 0.37 0.45 0.49 0.60 0.68 0.68 0.75 0.77 0.78 0.80 0.81 0.78 0.76 0.78 0.75 0.72 0.66 0.62 0.60 0.55 0.54 0.54 0.50 0.43 0.36 0.32 0.28
0.28 0.36 0.29 0.15 0.12 0.13 0.26 0.26 0.09 0.06 0.09 0.11 0.12 0.12 0.12 0.11 0.11 0.14 0.21 0.29 0.29 0.32 0.39 0.47 0.55 0.61 0.69 0.72 0.76 0.82 0.84 0.83 0.85 0.88 0.86 0.84 0.82 0.79 0.79 0.71 0.64 0.58 0.60 0.62 0.61 0.56 0.47 0.39 0.34
0.42 0.40 0.28 0.18 0.16 0.19 0.27 0.23 0.09 0.08 0.12 0.13 0.14 0.12 0.12 0.12 0.10 0.12 0.19 0.27 0.32 0.34 0.40 0.49 0.59 0.61 0.68 0.80 0.80 0.82 0.88 0.92 0.93 0.98 1.00 0.94 0.89 0.85 0.85 0.84 0.77 0.69 0.68 0.65 0.61 0.57 0.51 0.44 0.39
0.41 0.30 0.23 0.19 0.19 0.22 0.24 0.19 0.12 0.10 0.13 0.13 0.15 0.12 0.12 0.12 0.10 0.12 0.18 0.24 0.33 0.38 0.43 0.52 0.62 0.68 0.73 0.89 0.98 0.92 0.93 0.97 1.00 1.00 0.98 1.00 0.98 0.87 0.82 0.85 0.85 0.79 0.74 0.70 0.64 0.58 0.49 0.43 0.39
0.27 0.32 0.28 0.19 0.18 0.24 0.24 0.18 0.11 0.10 0.10 0.12 0.12 0.12 0.11 0.10 0.10 0.11 0.17 0.22 0.32 0.43 0.48 0.56 0.61 0.71 0.83 0.91 1.03 0.98 0.93 0.94 0.97 0.96 0.94 0.92 0.97 0.94 0.86 0.80 0.80 0.81 0.77 0.70 0.66 0.64 0.60 0.51 0.43
0.34 0.38 0.30 0.22 0.18 0.28 0.28 0.19 0.11 0.10 0.10 0.11 0.10 0.12 0.14 0.11 0.10 0.11 0.18 0.23 0.29 0.43 0.48 0.55 0.65 0.73 0.79 0.86 0.90 0.94 0.92 0.93 0.96 0.95 0.95 0.92 0.90 0.90 0.91 0.84 0.77 0.72 0.72 0.72 0.67 0.65 0.63 0.57 0.48
0.41 0.34 0.26 0.25 0.23 0.30 0.36 0.29 0.13 0.11 0.09 0.10 0.09 0.10 0.15 0.16 0.13 0.13 0.21 0.27 0.30 0.41 0.49 0.55 0.65 0.73 0.78 0.92 1.00 1.05 1.16 1.13 1.11 1.09 1.01 0.94 0.89 0.83 0.82 0.82 0.78 0.73 0.66 0.66 0.64 0.60 0.58 0.56 0.46
0.44 0.23 0.22 0.26 0.41 0.48 0.42 0.47 0.18 0.13 0.12 0.11 0.10 0.09 0.12 0.14 0.14 0.15 0.19 0.27 0.30 0.37 0.49 0.58 0.68 0.73 0.76 0.95 1.10 1.05 1.11 1.08 1.00 0.96 0.97 0.95 0.90 0.84 0.78 0.75 0.74 0.74 0.69 0.60 0.57 0.57 0.57 0.58 0.54
0.34 0.21 0.25 0.33 0.47 0.56 0.42 0.49 0.24 0.12 0.12 0.10 0.09 0.08 0.10 0.12 0.13 0.13 0.14 0.18 0.25 0.32 0.45 0.58 0.71 0.80 0.81 0.88 1.07 1.09 1.00 0.95 0.94 0.99 0.98 0.98 0.96 0.90 0.82 0.76 0.72 0.69 0.68 0.62 0.55 0.55 0.56 0.59 0.59
0.32 0.39 0.44 0.49 0.75 0.94 0.37 0.37 0.28 0.20 0.21 0.13 0.08 0.07 0.09 0.10 0.12 0.12 0.11 0.12 0.23 0.32 0.42 0.53 0.66 0.78 0.84 0.84 0.94 1.09 1.02 0.94 0.92 0.99 1.05 1.03 1.01 0.97 0.89 0.79 0.74 0.69 0.65 0.63 0.58 0.53 0.54 0.54 0.54
0.53 0.82 1.17 1.19 1.22 0.77 0.17 0.25 0.28 0.19 0.17 0.17 0.12 0.09 0.09 0.10 0.13 0.14 0.12 0.13 0.20 0.30 0.38 0.47 0.59 0.67 0.75 0.79 0.84 0.91 1.01 0.97 0.89 0.86 0.92 1.00 1.03 0.96 0.89 0.85 0.77 0.71 0.66 0.64 0.62 0.60 0.55 0.53 0.54
0.55 0.75 0.98 0.89 0.58 0.23 0.10 0.21 0.22 0.14 0.10 0.10 0.08 0.06 0.07 0.08 0.09 0.11 0.13 0.15 0.18 0.23 0.29 0.39 0.48 0.61 0.73 0.79 0.79 0.83 0.92 1.03 0.94 0.87 0.84 0.88 0.92 0.87 0.79 0.80 0.78 0.71 0.66 0.66 0.67 0.66 0.60 0.56 0.56
0.52 0.56 0.49 0.63 0.46 0.30 0.20 0.17 0.14 0.06 0.05 0.07 0.07 0.06 0.05 0.05 0.07 0.09 0.12 0.14 0.16 0.21 0.25 0.34 0.42 0.53 0.67 0.79 0.82 0.81 0.84 0.93 0.96 0.88 0.84 0.84 0.84 0.83 0.82 0.80 0.80 0.75 0.73 0.72 0.73 0.71 0.65 0.60 0.59
0.44 0.52 0.65 0.93 0.78 0.41 0.22 0.19 0.20 0.12 0.10 0.08 0.08 0.07 0.05 0.05 0.06 0.08 0.10 0.13 0.15 0.19 0.22 0.29 0.38 0.45 0.56 0.71 0.86 0.86 0.82 0.81 0.88 0.90 0.88 0.83 0.82 0.82 0.83 0.86 0.86 0.81 0.76 0.78 0.80 0.76 0.68 0.66 0.64
0.54 0.69 0.88 0.91 0.64 0.46 0.28 0.24 0.24 0.17 0.14 0.13 0.10 0.09 0.07 0.06 0.07 0.08 0.10 0.13 0.16 0.19 0.24 0.31 0.37 0.43 0.48 0.57 0.74 0.85 0.84 0.85 0.89 0.93 0.91 0.87 0.83 0.81 0.80 0.81 0.87 0.90 0.83 0.76 0.82 0.80 0.75 0.73 0.69
0.47 0.61 0.77 0.92 0.64 0.34 0.29 0.24 0.19 0.14 0.13 0.13 0.11 0.09 0.07 0.05 0.05 0.06 0.08 0.13 0.17 0.21 0.25 0.31 0.39 0.42 0.44 0.50 0.61 0.73 0.82 0.85 0.90 0.90 0.95 0.99 0.95 0.84 0.77 0.76 0.82 0.89 0.87 0.80 0.79 0.79 0.75 0.75 0.73

GEFSSGP_prec_meanprecacc_186.txt.gz
Total_Precipitation_Accumulation
0.04 0.03 0.03 0.04 0.03 0.02 0.00 0.00 0.00 0.00 0.00 0.00 0.00 0.00 0.00 0.00 0.00 0.01 0.01 0.01 0.02 0.04 0.08 0.16 0.21 0.25 0.28 0.30 0.30 0.30 0.28 0.28 0.31 0.33 0.36 0.39 0.39 0.39 0.41 0.41 0.42 0.42 0.43 0.46 0.45 0.46 0.44 0.38 0.35
0.04 0.03 0.05 0.06 0.03 0.01 0.00 0.00 0.00 0.00 0.00 0.00 0.00 0.00 0.00 0.00 0.00 0.00 0.00 0.01 0.01 0.02 0.06 0.12 0.21 0.26 0.30 0.31 0.32 0.32 0.31 0.31 0.33 0.36 0.39 0.40 0.41 0.43 0.44 0.42 0.41 0.42 0.45 0.48 0.50 0.49 0.47 0.42 0.42
0.05 0.06 0.08 0.07 0.03 0.00 0.00 0.00 0.00 0.00 0.00 0.00 0.00 0.00 0.00 0.00 0.00 0.01 0.01 0.01 0.01 0.02 0.04 0.11 0.22 0.28 0.32 0.35 0.36 0.35 0.36 0.36 0.38 0.39 0.41 0.45 0.46 0.47 0.47 0.42 0.38 0.38 0.38 0.40 0.43 0.49 0.53 0.52 0.50
0.08 0.13 0.12 0.07 0.01 0.00 0.00 0.00 0.00 0.00 0.00 0.00 0.00 0.00 0.00 0.00 0.00 0.01 0.01 0.01 0.02 0.02 0.04 0.12 0.22 0.30 0.35 0.39 0.39 0.38 0.40 0.41 0.44 0.45 0.45 0.50 0.55 0.54 0.51 0.47 0.43 0.38 0.36 0.40 0.42 0.49 0.58 0.56 0.49
0.12 0.16 0.13 0.06 0.01 0.00 0.00 0.00 0.00 0.00 0.00 0.00 0.00 0.00 0.00 0.00 0.00 0.01 0.01 0.02 0.03 0.04 0.07 0.13 0.22 0.32 0.37 0.41 0.43 0.43 0.46 0.47 0.49 0.50 0.51 0.55 0.58 0.57 0.53 0.52 0.47 0.42 0.40 0.40 0.41 0.45 0.55 0.54 0.49
0.16 0.18 0.11 0.04 0.01 0.00 0.00 0.00 0.00 0.00 0.00 0.00 0.00 0.00 0.00 0.00 0.00 0.00 0.00 0.01 0.02 0.03 0.05 0.11 0.23 0.33 0.39 0.44 0.48 0.49 0.53 0.57 0.57 0.57 0.61 0.63 0.62 0.60 0.57 0.54 0.48 0.46 0.43 0.41 0.40 0.42 0.48 0.48 0.45
0.16 0.16 0.08 0.03 0.01 0.00 0.00 0.00 0.00 0.00 0.00 0.00 0.00 0.00 0.00 0.00 0.00 0.00 0.01 0.01 0.03 0.05 0.08 0.13 0.23 0.33 0.41 0.49 0.54 0.57 0.61 0.63 0.64 0.66 0.68 0.71 0.70 0.69 0.64 0.56 0.49 0.47 0.46 0.45 0.44 0.41 0.38 0.38 0.38
0.19 0.19 0.09 0.03 0.02 0.01 0.00 0.00 0.00 0.01 0.00 0.00 0.00 0.00 0.00 0.01 0.01 0.01 0.02 0.04 0.06 0.09 0.12 0.16 0.25 0.32 0.40 0.50 0.57 0.64 0.68 0.70 0.76 0.79 0.74 0.74 0.79 0.81 0.76 0.64 0.55 0.51 0.48 0.45 0.44 0.42 0.34 0.29 0.30
0.24 0.28 0.11 0.03 0.02 0.02 0.01 0.01 0.01 0.01 0.01 0.01 0.00 0.00 0.01 0.02 0.02 0.04 0.05 0.08 0.12 0.14 0.17 0.21 0.30 0.38 0.43 0.49 0.56 0.69 0.80 0.84 0.89 0.93 0.85 0.84 0.85 0.82 0.76 0.66 0.61 0.54 0.50 0.45 0.45 0.44 0.43 0.36 0.31
0.29 0.23 0.08 0.02 0.02 0.03 0.03 0.03 0.03 0.04 0.02 0.01 0.01 0.01 0.02 0.03 0.05 0.07 0.08 0.11 0.13 0.16 0.20 0.26 0.33 0.41 0.52 0.57 0.64 0.73 0.82 0.89 0.90 0.81 0.84 0.87 0.82 0.79 0.74 0.71 0.69 0.61 0.56 0.54 0.51 0.47 0.45 0.41 0.32
0.22 0.15 0.06 0.03 0.03 0.04 0.06 0.06 0.05 0.06 0.05 0.03 0.03 0.03 0.04 0.05 0.07 0.08 0.10 0.12 0.14 0.16 0.22 0.29 0.37 0.47 0.57 0.62 0.67 0.72 0.77 0.82 0.85 0.78 0.73 0.76 0.80 0.79 0.80 0.72 0.70 0.67 0.63 0.63 0.59 0.57 0.47 0.41 0.38
0.16 0.10 0.07 0.05 0.05 0.07 0.07 0.08 0.07 0.06 0.06 0.05 0.05 0.04 0.05 0.08 0.09 0.11 0.12 0.14 0.17 0.22 0.26 0.32 0.41 0.50 0.58 0.65 0.68 0.69 0.72 0.73 0.73 0.75 0.76 0.74 0.75 0.69 0.67 0.66 0.61 0.58 0.55 0.56 0.59 0.55 0.51 0.43 0.39
0.14 0.09 0.07 0.07 0.08 0.09 0.10 0.11 0.09 0.05 0.05 0.06 0.07 0.07 0.07 0.09 0.11 0.14 0.16 0.17 0.19 0.24 0.30 0.36 0.44 0.52 0.60 0.70 0.75 0.74 0.73 0.68 0.68 0.72 0.79 0.77 0.70 0.65 0.64 0.62 0.61 0.58 0.52 0.47 0.46 0.44 0.42 0.39 0.36
0.14 0.12 0.09 0.09 0.10 0.12 0.15 0.13 0.12 0.07 0.05 0.08 0.09 0.10 0.09 0.10 0.13 0.17 0.21 0.22 0.21 0.26 0.33 0.40 0.48 0.56 0.64 0.69 0.73 0.74 0.75 0.75 0.77 0.76 0.74 0.79 0.79 0.68 0.66 0.67 0.62 0.58 0.56 0.50 0.45 0.39 0.37 0.35 0.32
0.18 0.20 0.16 0.11 0.10 0.11 0.20 0.23 0.12 0.06 0.07 0.09 0.10 0.12 0.12 0.11 0.13 0.16 0.22 0.26 0.24 0.28 0.37 0.46 0.50 0.61 0.71 0.70 0.77 0.78 0.78 0.80 0.82 0.79 0.78 0.82 0.84 0.83 0.74 0.69 0.66 0.60 0.60 0.59 0.56 0.51 0.43 0.39 0.33
0.28 0.36 0.29 0.15 0.12 0.13 0.26 0.26 0.09 0.06 0.10 0.11 0.12 0.12 0.12 0.11 0.11 0.14 0.21 0.29 0.29 0.32 0.39 0.47 0.55 0.62 0.72 0.76 0.79 0.84 0.85 0.84 0.86 0.89 0.88 0.88 0.90 0.90 0.89 0.80 0.70 0.63 0.65 0.67 0.66 0.64 0.57 0.47 0.40
0.42 0.40 0.28 0.18 0.16 0.19 0.27 0.23 0.09 0.08 0.12 0.13 0.14 0.13 0.12 0.12 0.11 0.12 0.19 0.27 0.32 0.34 0.40 0.49 0.59 0.62 0.70 0.84 0.84 0.85 0.90 0.93 0.94 0.99 1.02 0.97 0.95 0.94 0.96 0.94 0.85 0.74 0.72 0.69 0.65 0.62 0.59 0.54 0.47
0.41 0.30 0.23 0.19 0.19 0.22 0.24 0.19 0.12 0.10 0.13 0.14 0.15 0.13 0.12 0.12 0.10 0.12 0.18 0.24 0.33 0.38 0.43 0.52 0.62 0.68 0.75 0.92 1.03 0.97 0.97 0.99 1.02 1.02 1.00 1.02 1.04 0.95 0.91 0.95 0.95 0.86 0.79 0.74 0.67 0.62 0.55 0.50 0.48
0.27 0.32 0.28 0.19 0.18 0.24 0.24 0.18 0.12 0.11 0.11 0.12 0.12 0.12 0.12 0.11 0.10 0.11 0.17 0.23 0.32 0.43 0.48 0.56 0.62 0.72 0.85 0.95 1.09 1.05 0.98 0.98 1.00 0.98 0.97 0.95 1.02 1.04 0.96 0.90 0.90 0.90 0.83 0.74 0.70 0.68 0.65 0.59 0.52
0.34 0.38 0.30 0.22 0.18 0.28 0.28 0.19 0.11 0.11 0.11 0.11 0.10 0.12 0.14 0.11 0.10 0.12 0.18 0.23 0.29 0.43 0.49 0.55 0.65 0.75 0.82 0.89 0.97 1.03 1.00 0.99 1.02 1.01 0.99 0.97 0.96 1.00 1.03 0.95 0.86 0.81 0.80 0.78 0.71 0.70 0.69 0.67 0.60
0.41 0.34 0.26 0.25 0.23 0.30 0.36 0.29 0.14 0.12 0.10 0.10 0.10 0.10 0.15 0.16 0.13 0.14 0.21 0.27 0.31 0.41 0.49 0.55 0.66 0.74 0.81 0.96 1.05 1.12 1.22 1.19 1.17 1.16 1.06 0.98 0.95 0.93 0.96 0.96 0.91 0.83 0.75 0.73 0.70 0.64 0.64 0.65 0.59
0.44 0.23 0.22 0.26 0.41 0.48 0.42 0.48 0.18 0.14 0.13 0.12 0.10 0.09 0.12 0.14 0.14 0.15 0.20 0.29 0.33 0.39 0.50 0.58 0.69 0.75 0.79 0.98 1.13 1.08 1.16 1.13 1.04 0.99 1.01 0.98 0.94 0.91 0.89 0.89 0.89 0.89 0.80 0.69 0.65 0.63 0.62 0.65 0.65
0.34 0.21 0.25 0.33 0.47 0.56 0.42 0.49 0.25 0.14 0.14 0.11 0.09 0.08 0.10 0.12 0.13 0.13 0.14 0.20 0.29 0.36 0.47 0.58 0.72 0.81 0.83 0.91 1.09 1.12 1.06 1.01 0.98 1.02 1.01 1.01 1.00 0.96 0.90 0.86 0.85 0.83 0.81 0.72 0.63 0.61 0.62 0.65 0.66
0.32 0.39 0.44 0.49 0.75 0.94 0.37 0.37 0.29 0.23 0.23 0.15 0.09 0.08 0.09 0.10 0.12 0.12 0.11 0.13 0.25 0.36 0.46 0.55 0.67 0.80 0.86 0.85 0.97 1.11 1.07 1.01 0.97 1.03 1.07 1.05 1.04 1.01 0.96 0.87 0.83 0.78 0.73 0.70 0.63 0.56 0.58 0.60 0.60
0.53 0.82 1.17 1.19 1.22 0.77 0.17 0.25 0.29 0.22 0.19 0.19 0.14 0.09 0.09 0.10 0.13 0.14 0.12 0.13 0.20 0.32 0.43 0.52 0.62 0.71 0.78 0.81 0.85 0.93 1.05 1.02 0.94 0.89 0.95 1.03 1.06 1.00 0.94 0.90 0.82 0.76 0.70 0.68 0.67 0.63 0.58 0.57 0.58
0.55 0.75 0.99 0.90 0.58 0.23 0.10 0.21 0.22 0.15 0.12 0.12 0.10 0.08 0.08 0.08 0.09 0.11 0.13 0.15 0.18 0.23 0.30 0.42 0.53 0.64 0.76 0.82 0.81 0.85 0.94 1.06 0.97 0.90 0.87 0.91 0.95 0.91 0.84 0.84 0.82 0.75 0.69 0.69 0.71 0.69 0.63 0.59 0.59
0.52 0.56 0.49 0.63 0.46 0.30 0.20 0.17 0.14 0.07 0.06 0.08 0.08 0.07 0.07 0.07 0.08 0.10 0.12 0.15 0.17 0.22 0.25 0.36 0.44 0.57 0.72 0.84 0.85 0.84 0.87 0.95 0.98 0.90 0.86 0.87 0.87 0.87 0.86 0.84 0.83 0.79 0.77 0.76 0.76 0.75 0.67 0.63 0.62
0.44 0.52 0.65 0.93 0.79 0.42 0.22 0.19 0.20 0.12 0.10 0.09 0.09 0.09 0.07 0.07 0.09 0.11 0.12 0.15 0.17 0.20 0.23 0.31 0.39 0.47 0.57 0.73 0.88 0.88 0.82 0.82 0.90 0.92 0.91 0.86 0.85 0.86 0.87 0.90 0.90 0.85 0.80 0.82 0.84 0.79 0.71 0.69 0.67
0.54 0.69 0.88 0.91 0.65 0.47 0.29 0.24 0.24 0.17 0.14 0.13 0.11 0.10 0.09 0.08 0.09 0.10 0.13 0.15 0.17 0.21 0.26 0.32 0.39 0.44 0.49 0.59 0.75 0.86 0.85 0.85 0.90 0.94 0.93 0.90 0.85 0.85 0.84 0.84 0.91 0.93 0.87 0.81 0.86 0.85 0.78 0.77 0.72
0.47 0.61 0.77 0.92 0.64 0.34 0.30 0.24 0.19 0.14 0.13 0.13 0.11 0.09 0.08 0.06 0.07 0.07 0.09 0.15 0.18 0.23 0.28 0.33 0.41 0.43 0.45 0.51 0.62 0.74 0.83 0.86 0.91 0.91 0.96 1.00 0.98 0.88 0.80 0.79 0.85 0.92 0.91 0.85 0.83 0.83 0.80 0.81 0.77